Time,TemperatureF,DewpointF,PressureIn,WindDirection,WindDirectionDegrees,WindSpeedMPH,WindSpeedGustMPH,Humidity,HourlyPrecipIn,Conditions,Clouds,dailyrainin,SoftwareType,DateUTC
2013-05-23 00:00:00,58.4,50.5,29.79,WNW,292,0.8,0.8,75,0.00,,BKN041,0.00,VWS V14.01,2013-05-23 05:00:00,
2013-05-23 00:02:00,58.6,50.7,29.79,West,270,0.0,0.8,75,0.00,,BKN041,0.00,VWS V14.01,2013-05-23 05:02:00,
2013-05-23 00:04:00,58.6,50.7,29.79,West,270,0.0,3.4,75,0.00,,BKN041,0.00,VWS V14.01,2013-05-23 05:04:00,
2013-05-23 00:06:00,58.4,50.5,29.79,West,270,0.0,0.0,75,0.00,,BKN041,0.00,VWS V14.01,2013-05-23 05:06:00,
2013-05-23 00:07:00,58.6,50.7,29.79,West,270,0.0,0.0,75,0.00,,BKN041,0.00,VWS V14.01,2013-05-23 05:07:00,
2013-05-23 00:08:00,58.4,50.5,29.79,West,270,4.8,4.8,75,0.00,,BKN041,0.00,VWS V14.01,2013-05-23 05:08:00,
2013-05-23 00:11:00,58.6,50.7,29.80,SW,225,4.0,4.0,75,0.00,,BKN041,0.00,VWS V14.01,2013-05-23 05:11:00,
2013-05-23 00:12:00,58.4,50.5,29.79,West,270,0.0,4.0,75,0.00,,BKN041,0.00,VWS V14.01,2013-05-23 05:12:00,
2013-05-23 00:14:00,58.4,50.5,29.80,West,270,0.0,9.2,75,0.00,,BKN041,0.00,VWS V14.01,2013-05-23 05:14:00,
2013-05-23 00:15:00,58.4,50.5,29.80,West,270,0.0,0.0,75,0.00,,BKN041,0.00,VWS V14.01,2013-05-23 05:15:00,
2013-05-23 00:17:00,58.2,50.3,29.79,West,270,0.0,0.0,75,0.00,,BKN041,0.00,VWS V14.01,2013-05-23 05:17:00,
2013-05-23 00:18:00,58.2,50.3,29.79,West,270,0.0,4.0,75,0.00,,BKN041,0.00,VWS V14.01,2013-05-23 05:18:00,
2013-05-23 00:20:00,58.2,50.3,29.80,West,270,0.0,0.0,75,0.00,,BKN041,0.00,VWS V14.01,2013-05-23 05:20:00,
2013-05-23 00:21:00,58.2,50.3,29.80,WNW,292,0.0,1.2,75,0.00,,BKN041,0.00,VWS V14.01,2013-05-23 05:21:00,
2013-05-23 00:24:00,58.1,50.2,29.80,North,0,0.0,0.0,75,0.00,,BKN041,0.00,VWS V14.01,2013-05-23 05:24:00,
2013-05-23 00:26:00,58.2,50.3,29.80,WNW,292,0.0,0.0,75,0.00,,BKN041,0.00,VWS V14.01,2013-05-23 05:26:00,
2013-05-23 00:29:00,58.1,50.2,29.80,West,270,0.0,0.0,75,0.00,,BKN041,0.00,VWS V14.01,2013-05-23 05:29:00,
2013-05-23 00:30:00,58.1,50.2,29.79,NNW,338,0.0,0.0,75,0.00,,BKN041,0.00,VWS V14.01,2013-05-23 05:30:00,
2013-05-23 00:31:00,58.1,50.2,29.79,WNW,292,2.6,2.6,75,0.00,,BKN041,0.00,VWS V14.01,2013-05-23 05:31:00,
2013-05-23 00:32:00,58.1,50.2,29.79,WNW,292,0.0,2.6,75,0.00,,BKN041,0.00,VWS V14.01,2013-05-23 05:32:00,
2013-05-23 00:34:00,58.1,50.2,29.80,West,270,0.0,0.0,75,0.00,,BKN041,0.00,VWS V14.01,2013-05-23 05:34:00,
2013-05-23 00:36:00,58.1,50.6,29.80,West,270,0.0,0.0,76,0.00,,BKN041,0.00,VWS V14.01,2013-05-23 05:36:00,
2013-05-23 00:37:00,57.9,50.0,29.79,West,270,1.6,1.6,75,0.00,,BKN041,0.00,VWS V14.01,2013-05-23 05:37:00,
2013-05-23 00:38:00,58.1,50.6,29.79,West,270,4.4,4.4,76,0.00,,BKN041,0.00,VWS V14.01,2013-05-23 05:38:00,
2013-05-23 00:42:00,57.7,50.5,29.80,WSW,248,4.0,6.6,77,0.00,,BKN041,0.00,VWS V14.01,2013-05-23 05:42:00,
2013-05-23 00:43:00,57.5,50.4,29.80,West,270,0.0,4.0,77,0.00,,BKN041,0.00,VWS V14.01,2013-05-23 05:43:00,
2013-05-23 00:44:00,57.5,50.4,29.80,West,270,0.0,0.0,77,0.00,,BKN041,0.00,VWS V14.01,2013-05-23 05:44:00,
2013-05-23 00:45:00,57.3,50.2,29.80,WNW,292,0.0,0.0,77,0.00,,BKN041,0.00,VWS V14.01,2013-05-23 05:45:00,
2013-05-23 00:46:00,57.3,50.5,29.79,WNW,292,2.6,2.6,78,0.00,,BKN041,0.00,VWS V14.01,2013-05-23 05:46:00,
2013-05-23 00:47:00,57.0,50.2,29.80,WNW,292,0.0,2.6,78,0.00,,BKN041,0.00,VWS V14.01,2013-05-23 05:47:00,
2013-05-23 00:50:00,56.8,50.4,29.79,WNW,292,3.4,3.4,79,0.00,,OVC024,0.00,VWS V14.01,2013-05-23 05:50:00,
2013-05-23 00:51:00,56.6,50.2,29.79,West,270,0.0,3.4,79,0.00,,OVC024,0.00,VWS V14.01,2013-05-23 05:51:00,
2013-05-23 00:54:00,56.6,50.5,29.79,SW,225,5.2,5.2,80,0.00,,OVC024,0.00,VWS V14.01,2013-05-23 05:54:00,
2013-05-23 00:56:00,56.4,50.7,29.79,SW,225,0.0,5.2,81,0.00,,OVC024,0.00,VWS V14.01,2013-05-23 05:56:00,
2013-05-23 00:57:00,56.4,50.7,29.79,West,270,0.0,0.0,81,0.00,,OVC024,0.00,VWS V14.01,2013-05-23 05:57:00,
2013-05-23 00:58:00,56.4,50.7,29.79,West,270,0.0,0.0,81,0.00,,OVC024,0.00,VWS V14.01,2013-05-23 05:58:00,
2013-05-23 01:01:00,56.3,50.9,29.79,West,270,0.0,0.0,82,0.00,,OVC024,0.00,VWS V14.01,2013-05-23 06:01:00,
2013-05-23 01:03:00,56.1,51.3,29.79,West,270,0.0,0.0,84,0.00,,OVC024,0.00,VWS V14.01,2013-05-23 06:03:00,
2013-05-23 01:04:00,56.1,51.3,29.79,West,270,0.0,0.0,84,0.00,,OVC024,0.00,VWS V14.01,2013-05-23 06:04:00,
2013-05-23 01:08:00,56.1,51.7,29.79,West,270,0.0,0.0,85,0.00,,OVC024,0.00,VWS V14.01,2013-05-23 06:08:00,
2013-05-23 01:09:00,56.1,51.7,29.79,West,270,3.0,3.0,85,0.00,,OVC024,0.00,VWS V14.01,2013-05-23 06:09:00,
2013-05-23 01:10:00,56.1,51.7,29.79,West,270,0.0,0.0,85,0.00,,OVC024,0.00,VWS V14.01,2013-05-23 06:10:00,
2013-05-23 01:11:00,56.1,51.7,29.79,WNW,292,0.0,0.0,85,0.00,,OVC024,0.00,VWS V14.01,2013-05-23 06:11:00,
2013-05-23 01:12:00,56.1,52.0,29.79,West,270,0.0,0.0,86,0.00,,OVC024,0.00,VWS V14.01,2013-05-23 06:12:00,
2013-05-23 01:14:00,55.9,51.8,29.79,WSW,248,0.0,0.0,86,0.00,,OVC024,0.00,VWS V14.01,2013-05-23 06:14:00,
2013-05-23 01:16:00,55.9,51.8,29.79,WNW,292,0.0,0.0,86,0.00,,OVC024,0.00,VWS V14.01,2013-05-23 06:16:00,
2013-05-23 01:18:00,55.9,52.1,29.79,West,270,0.0,0.0,87,0.00,,OVC024,0.00,VWS V14.01,2013-05-23 06:18:00,
2013-05-23 01:21:00,55.9,52.1,29.79,WNW,292,0.0,0.0,87,0.00,,OVC024,0.00,VWS V14.01,2013-05-23 06:21:00,
2013-05-23 01:22:00,55.9,52.1,29.79,SW,225,0.0,0.0,87,0.00,,OVC024,0.00,VWS V14.01,2013-05-23 06:22:00,
2013-05-23 01:24:00,55.9,52.1,29.79,West,270,0.0,0.0,87,0.00,,OVC024,0.00,VWS V14.01,2013-05-23 06:24:00,
2013-05-23 01:26:00,55.9,52.1,29.79,West,270,0.0,0.0,87,0.00,,OVC024,0.00,VWS V14.01,2013-05-23 06:26:00,
2013-05-23 01:27:00,55.9,52.4,29.79,West,270,0.0,0.0,88,0.00,,OVC024,0.00,VWS V14.01,2013-05-23 06:27:00,
2013-05-23 01:28:00,55.9,52.4,29.80,West,270,0.0,0.0,88,0.00,,OVC024,0.00,VWS V14.01,2013-05-23 06:28:00,
2013-05-23 01:29:00,55.9,52.4,29.80,SW,225,0.0,0.0,88,0.00,,OVC024,0.00,VWS V14.01,2013-05-23 06:29:00,
2013-05-23 01:30:00,55.9,52.4,29.79,West,270,0.0,0.0,88,0.00,,OVC024,0.00,VWS V14.01,2013-05-23 06:30:00,
2013-05-23 01:32:00,55.7,52.2,29.79,West,270,0.0,6.6,88,0.00,,OVC024,0.00,VWS V14.01,2013-05-23 06:32:00,
2013-05-23 01:36:00,55.7,52.2,29.79,West,270,0.0,0.0,88,0.00,,OVC024,0.00,VWS V14.01,2013-05-23 06:36:00,
2013-05-23 01:37:00,55.7,52.5,29.79,West,270,0.0,0.0,89,0.00,,OVC024,0.00,VWS V14.01,2013-05-23 06:37:00,
2013-05-23 01:38:00,55.7,52.5,29.79,West,270,0.0,0.0,89,0.00,,OVC024,0.00,VWS V14.01,2013-05-23 06:38:00,
2013-05-23 01:42:00,55.9,52.7,29.79,West,270,3.0,3.0,89,0.00,,OVC024,0.00,VWS V14.01,2013-05-23 06:42:00,
2013-05-23 01:43:00,55.9,52.7,29.79,WNW,292,0.0,3.0,89,0.00,,OVC024,0.00,VWS V14.01,2013-05-23 06:43:00,
2013-05-23 01:44:00,56.1,52.9,29.80,WNW,292,0.0,3.0,89,0.00,,OVC024,0.00,VWS V14.01,2013-05-23 06:44:00,
2013-05-23 01:46:00,55.9,52.7,29.80,West,270,0.0,2.6,89,0.00,,OVC024,0.00,VWS V14.01,2013-05-23 06:46:00,
2013-05-23 01:48:00,55.9,52.7,29.80,West,270,0.0,0.0,89,0.00,,OVC024,0.00,VWS V14.01,2013-05-23 06:48:00,
2013-05-23 01:50:00,55.9,52.7,29.80,SW,225,0.0,0.0,89,0.00,,-RA,0.00,VWS V14.01,2013-05-23 06:50:00,
2013-05-23 01:51:00,55.9,52.7,29.80,West,270,0.0,0.0,89,0.00,,-RA,0.00,VWS V14.01,2013-05-23 06:51:00,
2013-05-23 01:53:00,55.9,52.7,29.80,WNW,292,0.0,0.0,89,0.00,,-RA,0.00,VWS V14.01,2013-05-23 06:53:00,
2013-05-23 01:57:00,55.9,53.0,29.80,West,270,0.0,0.0,90,0.00,,-RA,0.00,VWS V14.01,2013-05-23 06:57:00,
2013-05-23 01:58:00,55.9,53.0,29.80,West,270,0.0,0.0,90,0.00,,-RA,0.00,VWS V14.01,2013-05-23 06:58:00,
2013-05-23 01:59:00,55.9,53.0,29.80,North,0,4.0,4.0,90,0.00,,-RA,0.00,VWS V14.01,2013-05-23 06:59:00,
2013-05-23 02:00:00,55.7,52.8,29.80,North,0,0.0,0.0,90,0.00,,-RA,0.00,VWS V14.01,2013-05-23 07:00:00,
2013-05-23 02:03:00,55.9,53.0,29.80,West,270,1.6,1.6,90,0.00,,-RA,0.00,VWS V14.01,2013-05-23 07:03:00,
2013-05-23 02:04:00,55.7,52.8,29.80,West,270,0.0,1.6,90,0.00,,-RA,0.00,VWS V14.01,2013-05-23 07:04:00,
2013-05-23 02:05:00,55.7,52.8,29.80,West,270,0.0,0.0,90,0.00,,-RA,0.00,VWS V14.01,2013-05-23 07:05:00,
2013-05-23 02:07:00,55.7,52.8,29.80,West,270,0.0,0.0,90,0.00,,-RA,0.00,VWS V14.01,2013-05-23 07:07:00,
2013-05-23 02:08:00,55.7,52.8,29.80,West,270,0.0,0.0,90,0.00,,-RA,0.00,VWS V14.01,2013-05-23 07:08:00,
2013-05-23 02:09:00,55.7,52.8,29.80,West,270,0.0,0.0,90,0.00,,-RA,0.00,VWS V14.01,2013-05-23 07:09:00,
2013-05-23 02:10:00,55.7,52.8,29.80,West,270,0.0,0.0,90,0.00,,-RA,0.00,VWS V14.01,2013-05-23 07:10:00,
2013-05-23 02:12:00,55.7,52.8,29.80,West,270,0.0,0.0,90,0.00,,-RA,0.00,VWS V14.01,2013-05-23 07:12:00,
2013-05-23 02:14:00,55.7,52.8,29.80,SW,225,0.0,0.0,90,0.00,,-RA,0.00,VWS V14.01,2013-05-23 07:14:00,
2013-05-23 02:15:00,55.7,52.8,29.80,WNW,292,0.0,0.0,90,0.00,,-RA,0.00,VWS V14.01,2013-05-23 07:15:00,
2013-05-23 02:17:00,55.7,52.8,29.80,West,270,0.0,2.6,90,0.00,,-RA,0.00,VWS V14.01,2013-05-23 07:17:00,
2013-05-23 02:19:00,55.7,53.1,29.80,West,270,0.0,0.0,91,0.00,,-RA,0.00,VWS V14.01,2013-05-23 07:19:00,
2013-05-23 02:20:00,55.7,53.1,29.80,West,270,0.0,0.0,91,0.00,,-RA,0.00,VWS V14.01,2013-05-23 07:20:00,
2013-05-23 02:21:00,55.7,53.1,29.80,West,270,0.0,0.0,91,0.00,,-RA,0.00,VWS V14.01,2013-05-23 07:21:00,
2013-05-23 02:24:00,55.7,53.1,29.80,West,270,0.0,0.0,91,0.00,,-RA,0.00,VWS V14.01,2013-05-23 07:24:00,
2013-05-23 02:25:00,55.7,53.1,29.80,SW,225,0.0,0.0,91,0.00,,-RA,0.00,VWS V14.01,2013-05-23 07:25:00,
2013-05-23 02:26:00,55.7,53.1,29.80,WNW,292,0.0,0.0,91,0.00,,-RA,0.00,VWS V14.01,2013-05-23 07:26:00,
2013-05-23 02:28:00,55.7,53.1,29.80,West,270,0.0,0.0,91,0.00,,-RA,0.00,VWS V14.01,2013-05-23 07:28:00,
2013-05-23 02:30:00,55.7,53.1,29.80,West,270,0.0,0.0,91,0.00,,-RA,0.00,VWS V14.01,2013-05-23 07:30:00,
2013-05-23 02:34:00,55.7,53.1,29.80,WNW,292,0.0,0.0,91,0.00,,-RA,0.00,VWS V14.01,2013-05-23 07:34:00,
2013-05-23 02:35:00,55.7,53.1,29.80,West,270,0.0,0.0,91,0.00,,-RA,0.00,VWS V14.01,2013-05-23 07:35:00,
2013-05-23 02:38:00,55.7,53.1,29.80,West,270,0.0,0.0,91,0.00,,-RA,0.00,VWS V14.01,2013-05-23 07:38:00,
2013-05-23 02:40:00,55.7,53.1,29.80,WNW,292,0.0,0.0,91,0.00,,-RA,0.00,VWS V14.01,2013-05-23 07:40:00,
2013-05-23 02:41:00,55.9,53.3,29.80,West,270,0.0,0.0,91,0.00,,-RA,0.00,VWS V14.01,2013-05-23 07:41:00,
2013-05-23 02:43:00,55.7,53.4,29.80,West,270,0.0,0.0,92,0.00,,-RA,0.00,VWS V14.01,2013-05-23 07:43:00,
2013-05-23 02:46:00,55.7,53.4,29.80,West,270,3.0,3.0,92,0.00,,-RA,0.00,VWS V14.01,2013-05-23 07:46:00,
2013-05-23 02:47:00,55.7,53.4,29.80,WNW,292,0.0,3.0,92,0.00,,-RA,0.00,VWS V14.01,2013-05-23 07:47:00,
2013-05-23 02:50:00,55.7,53.4,29.80,West,270,0.0,0.0,92,0.00,,-RA,0.00,VWS V14.01,2013-05-23 07:50:00,
2013-05-23 02:52:00,55.9,53.6,29.80,West,270,1.2,1.2,92,0.00,,-RA,0.00,VWS V14.01,2013-05-23 07:52:00,
2013-05-23 02:53:00,55.9,53.6,29.80,West,270,0.0,0.0,92,0.00,,-RA,0.00,VWS V14.01,2013-05-23 07:53:00,
2013-05-23 02:57:00,55.7,53.4,29.80,West,270,0.0,0.0,92,0.00,,-RA,0.00,VWS V14.01,2013-05-23 07:57:00,
2013-05-23 02:58:00,55.9,53.6,29.80,WNW,292,0.0,0.0,92,0.00,,-RA,0.00,VWS V14.01,2013-05-23 07:58:00,
2013-05-23 02:59:00,55.7,53.4,29.80,West,270,0.0,0.0,92,0.00,,-RA,0.00,VWS V14.01,2013-05-23 07:59:00,
2013-05-23 03:04:00,55.9,53.6,29.80,West,270,0.0,0.0,92,0.00,,-RA,0.00,VWS V14.01,2013-05-23 08:04:00,
2013-05-23 03:05:00,55.9,53.6,29.80,West,270,0.0,0.0,92,0.00,,-RA,0.00,VWS V14.01,2013-05-23 08:05:00,
2013-05-23 03:06:00,55.9,53.6,29.80,West,270,0.0,0.0,92,0.00,,-RA,0.00,VWS V14.01,2013-05-23 08:06:00,
2013-05-23 03:07:00,55.9,53.6,29.80,West,270,0.0,0.0,92,0.00,,-RA,0.00,VWS V14.01,2013-05-23 08:07:00,
2013-05-23 03:10:00,55.9,53.6,29.80,WNW,292,0.0,0.0,92,0.00,,-RA,0.00,VWS V14.01,2013-05-23 08:10:00,
2013-05-23 03:12:00,55.9,53.6,29.80,West,270,0.0,0.0,92,0.00,,-RA,0.00,VWS V14.01,2013-05-23 08:12:00,
2013-05-23 03:14:00,55.9,53.6,29.80,West,270,0.0,0.0,92,0.00,,-RA,0.00,VWS V14.01,2013-05-23 08:14:00,
2013-05-23 03:16:00,56.1,53.8,29.80,WNW,292,0.0,0.0,92,0.00,,-RA,0.00,VWS V14.01,2013-05-23 08:16:00,
2013-05-23 03:17:00,56.1,53.8,29.80,WNW,292,0.0,0.0,92,0.00,,-RA,0.00,VWS V14.01,2013-05-23 08:17:00,
2013-05-23 03:18:00,55.9,53.6,29.80,West,270,0.0,0.0,92,0.00,,-RA,0.00,VWS V14.01,2013-05-23 08:18:00,
2013-05-23 03:22:00,56.1,53.8,29.80,WNW,292,0.0,0.0,92,0.00,,-RA,0.00,VWS V14.01,2013-05-23 08:22:00,
2013-05-23 03:24:00,55.9,53.6,29.80,West,270,0.0,0.0,92,0.00,,-RA,0.00,VWS V14.01,2013-05-23 08:24:00,
2013-05-23 03:26:00,55.9,53.6,29.80,North,0,0.0,0.0,92,0.00,,-RA,0.00,VWS V14.01,2013-05-23 08:26:00,
2013-05-23 03:30:00,56.1,55.0,29.80,West,270,0.0,0.0,96,0.00,,-RA,0.00,VWS V14.01,2013-05-23 08:30:00,
2013-05-23 03:31:00,55.9,53.6,29.80,West,270,0.0,0.0,92,0.00,,-RA,0.00,VWS V14.01,2013-05-23 08:31:00,
2013-05-23 03:32:00,56.1,55.0,29.80,WNW,292,0.0,0.0,96,0.00,,-RA,0.00,VWS V14.01,2013-05-23 08:32:00,
2013-05-23 03:35:00,56.1,55.0,29.80,West,270,0.0,0.0,96,0.00,,-RA,0.00,VWS V14.01,2013-05-23 08:35:00,
2013-05-23 03:36:00,56.1,55.0,29.80,West,270,0.0,0.0,96,0.00,,-RA,0.00,VWS V14.01,2013-05-23 08:36:00,
2013-05-23 03:37:00,56.1,53.8,29.80,WNW,292,0.0,0.0,92,0.00,,-RA,0.00,VWS V14.01,2013-05-23 08:37:00,
2013-05-23 03:40:00,56.1,55.0,29.80,WNW,292,0.0,0.0,96,0.00,,-RA,0.00,VWS V14.01,2013-05-23 08:40:00,
2013-05-23 03:43:00,56.1,53.8,29.80,WNW,292,0.0,0.0,92,0.00,,-RA,0.00,VWS V14.01,2013-05-23 08:43:00,
2013-05-23 03:44:00,56.1,55.0,29.80,West,270,0.0,0.0,96,0.00,,-RA,0.00,VWS V14.01,2013-05-23 08:44:00,
2013-05-23 03:45:00,56.1,55.0,29.81,SW,225,0.0,0.0,96,0.00,,-RA,0.00,VWS V14.01,2013-05-23 08:45:00,
2013-05-23 03:46:00,56.1,55.0,29.80,West,270,0.0,0.0,96,0.00,,-RA,0.00,VWS V14.01,2013-05-23 08:46:00,
2013-05-23 03:49:00,56.1,55.0,29.81,West,270,0.0,0.0,96,0.00,,-RA,0.00,VWS V14.01,2013-05-23 08:49:00,
2013-05-23 03:51:00,56.1,55.0,29.81,West,270,0.0,0.0,96,0.00,,,0.00,VWS V14.01,2013-05-23 08:51:00,
2013-05-23 03:53:00,56.3,55.2,29.80,West,270,0.0,0.0,96,0.00,,,0.00,VWS V14.01,2013-05-23 08:53:00,
2013-05-23 03:55:00,56.3,55.2,29.80,WNW,292,0.0,0.0,96,0.00,,,0.00,VWS V14.01,2013-05-23 08:55:00,
2013-05-23 03:56:00,56.3,55.2,29.80,West,270,0.0,0.0,96,0.00,,,0.00,VWS V14.01,2013-05-23 08:56:00,
2013-05-23 03:58:00,56.3,55.2,29.81,West,270,0.0,0.0,96,0.00,,,0.00,VWS V14.01,2013-05-23 08:58:00,
2013-05-23 04:00:00,56.3,55.2,29.81,WNW,292,0.0,0.0,96,0.00,,,0.00,VWS V14.01,2013-05-23 09:00:00,
2013-05-23 04:02:00,56.3,55.2,29.81,North,0,0.0,0.0,96,0.00,,,0.00,VWS V14.01,2013-05-23 09:02:00,
2013-05-23 04:04:00,56.3,55.2,29.81,West,270,0.0,0.0,96,0.00,,,0.00,VWS V14.01,2013-05-23 09:04:00,
2013-05-23 04:05:00,56.3,55.2,29.81,West,270,0.0,0.0,96,0.00,,,0.00,VWS V14.01,2013-05-23 09:05:00,
2013-05-23 04:07:00,56.3,55.2,29.81,West,270,0.0,0.0,96,0.00,,,0.00,VWS V14.01,2013-05-23 09:07:00,
2013-05-23 04:09:00,56.3,55.2,29.81,West,270,0.0,0.0,96,0.00,,,0.00,VWS V14.01,2013-05-23 09:09:00,
2013-05-23 04:10:00,56.3,55.2,29.81,West,270,0.0,0.0,96,0.00,,,0.00,VWS V14.01,2013-05-23 09:10:00,
2013-05-23 04:12:00,56.3,55.2,29.81,West,270,0.0,0.0,96,0.00,,,0.00,VWS V14.01,2013-05-23 09:12:00,
2013-05-23 04:14:00,56.3,55.2,29.81,West,270,0.0,0.0,96,0.00,,,0.00,VWS V14.01,2013-05-23 09:14:00,
2013-05-23 04:15:00,56.3,55.2,29.81,West,270,0.0,0.0,96,0.00,,,0.00,VWS V14.01,2013-05-23 09:15:00,
2013-05-23 04:19:00,56.3,55.2,29.82,West,270,0.0,0.0,96,0.00,,,0.00,VWS V14.01,2013-05-23 09:19:00,
2013-05-23 04:20:00,56.3,55.2,29.81,West,270,0.0,0.0,96,0.00,,,0.00,VWS V14.01,2013-05-23 09:20:00,
2013-05-23 04:21:00,56.4,55.3,29.82,West,270,0.0,0.0,96,0.00,,,0.00,VWS V14.01,2013-05-23 09:21:00,
2013-05-23 04:23:00,56.3,55.2,29.82,West,270,0.0,0.0,96,0.00,,,0.00,VWS V14.01,2013-05-23 09:23:00,
2013-05-23 04:27:00,56.4,55.3,29.82,WNW,292,0.0,0.0,96,0.00,,,0.00,VWS V14.01,2013-05-23 09:27:00,
2013-05-23 04:28:00,56.4,55.3,29.82,WNW,292,0.0,0.0,96,0.00,,,0.00,VWS V14.01,2013-05-23 09:28:00,
2013-05-23 04:29:00,56.4,55.3,29.82,West,270,0.0,0.0,96,0.00,,,0.00,VWS V14.01,2013-05-23 09:29:00,
2013-05-23 04:30:00,56.6,55.5,29.82,West,270,0.0,0.0,96,0.00,,,0.00,VWS V14.01,2013-05-23 09:30:00,
2013-05-23 04:32:00,56.4,55.3,29.82,West,270,0.0,0.0,96,0.00,,,0.00,VWS V14.01,2013-05-23 09:32:00,
2013-05-23 04:36:00,56.6,55.5,29.82,West,270,0.0,0.0,96,0.00,,,0.00,VWS V14.01,2013-05-23 09:36:00,
2013-05-23 04:37:00,56.6,55.5,29.82,West,270,0.0,0.0,96,0.00,,,0.00,VWS V14.01,2013-05-23 09:37:00,
2013-05-23 04:38:00,56.4,55.3,29.82,West,270,0.0,0.0,96,0.00,,,0.00,VWS V14.01,2013-05-23 09:38:00,
2013-05-23 04:41:00,56.6,55.5,29.82,West,270,0.0,0.0,96,0.00,,,0.00,VWS V14.01,2013-05-23 09:41:00,
2013-05-23 04:42:00,56.6,55.5,29.82,SW,225,0.0,0.0,96,0.00,,,0.00,VWS V14.01,2013-05-23 09:42:00,
2013-05-23 04:46:00,56.6,55.5,29.83,West,270,0.0,0.0,96,0.00,,,0.00,VWS V14.01,2013-05-23 09:46:00,
2013-05-23 04:47:00,56.6,55.5,29.82,West,270,0.0,0.0,96,0.00,,,0.00,VWS V14.01,2013-05-23 09:47:00,
2013-05-23 04:48:00,56.6,55.5,29.82,West,270,0.0,0.0,96,0.00,,,0.00,VWS V14.01,2013-05-23 09:48:00,
2013-05-23 04:50:00,56.6,55.5,29.83,West,270,0.0,0.0,96,0.00,,,0.00,VWS V14.01,2013-05-23 09:50:00,
2013-05-23 04:53:00,56.6,55.5,29.83,West,270,0.0,0.0,96,0.00,,,0.00,VWS V14.01,2013-05-23 09:53:00,
2013-05-23 04:55:00,56.6,55.5,29.83,West,270,0.0,0.0,96,0.00,,,0.00,VWS V14.01,2013-05-23 09:55:00,
2013-05-23 04:56:00,56.8,55.7,29.83,NNW,338,0.0,0.0,96,0.00,,,0.00,VWS V14.01,2013-05-23 09:56:00,
2013-05-23 04:58:00,56.8,55.7,29.83,NNW,338,0.0,0.0,96,0.00,,,0.00,VWS V14.01,2013-05-23 09:58:00,
2013-05-23 04:59:00,56.8,55.7,29.83,NNW,338,0.0,0.0,96,0.00,,,0.00,VWS V14.01,2013-05-23 09:59:00,
2013-05-23 05:02:00,56.8,55.7,29.83,NNW,338,0.0,0.0,96,0.00,,,0.00,VWS V14.01,2013-05-23 10:02:00,
2013-05-23 05:04:00,56.8,55.7,29.83,West,270,0.0,0.0,96,0.00,,,0.00,VWS V14.01,2013-05-23 10:04:00,
2013-05-23 05:05:00,56.8,55.7,29.83,West,270,0.0,0.0,96,0.00,,,0.00,VWS V14.01,2013-05-23 10:05:00,
2013-05-23 05:08:00,57.0,55.9,29.83,West,270,0.0,0.0,96,0.00,,,0.00,VWS V14.01,2013-05-23 10:08:00,
2013-05-23 05:10:00,57.0,55.9,29.83,WNW,292,0.0,0.0,96,0.00,,,0.00,VWS V14.01,2013-05-23 10:10:00,
2013-05-23 05:12:00,57.0,55.9,29.83,WNW,292,0.0,0.0,96,0.00,,,0.00,VWS V14.01,2013-05-23 10:12:00,
2013-05-23 05:14:00,57.0,55.9,29.83,WNW,292,0.0,0.0,96,0.00,,,0.00,VWS V14.01,2013-05-23 10:14:00,
2013-05-23 05:16:00,57.0,55.9,29.84,WNW,292,0.0,0.0,96,0.00,,,0.00,VWS V14.01,2013-05-23 10:16:00,
2013-05-23 05:18:00,57.2,56.1,29.84,WNW,292,0.0,0.0,96,0.00,,,0.00,VWS V14.01,2013-05-23 10:18:00,
2013-05-23 05:19:00,57.2,56.1,29.85,WNW,292,0.0,0.0,96,0.00,,,0.00,VWS V14.01,2013-05-23 10:19:00,
2013-05-23 05:21:00,57.3,56.2,29.85,North,0,0.0,0.0,96,0.00,,,0.00,VWS V14.01,2013-05-23 10:21:00,
2013-05-23 05:23:00,57.3,56.2,29.85,NNE,22,0.0,0.0,96,0.00,,,0.00,VWS V14.01,2013-05-23 10:23:00,
2013-05-23 05:24:00,57.3,56.2,29.85,NNW,338,28.0,28.0,96,0.00,,,0.00,VWS V14.01,2013-05-23 10:24:00,
2013-05-23 05:25:00,57.3,56.2,29.85,North,0,0.0,28.0,96,0.00,,,0.00,VWS V14.01,2013-05-23 10:25:00,
2013-05-23 05:30:00,57.2,56.1,29.86,NNE,22,0.0,0.0,96,0.00,,,0.00,VWS V14.01,2013-05-23 10:30:00,
2013-05-23 05:31:00,57.0,55.9,29.86,NE,45,4.0,4.0,96,0.00,,,0.00,VWS V14.01,2013-05-23 10:31:00,
2013-05-23 05:34:00,56.6,55.5,29.86,NE,45,11.0,11.0,96,0.00,,,0.00,VWS V14.01,2013-05-23 10:34:00,
2013-05-23 05:36:00,56.4,55.3,29.86,NE,45,3.4,11.0,96,0.00,,,0.00,VWS V14.01,2013-05-23 10:36:00,
2013-05-23 05:37:00,56.3,55.2,29.86,North,0,0.0,3.4,96,0.00,,,0.00,VWS V14.01,2013-05-23 10:37:00,
2013-05-23 05:38:00,56.3,55.2,29.86,NNE,22,0.0,3.4,96,0.00,,,0.00,VWS V14.01,2013-05-23 10:38:00,
2013-05-23 05:39:00,56.3,55.2,29.86,NNE,22,0.0,0.0,96,0.00,,,0.00,VWS V14.01,2013-05-23 10:39:00,
2013-05-23 05:42:00,56.1,55.0,29.86,NNW,338,0.0,0.0,96,0.00,,,0.00,VWS V14.01,2013-05-23 10:42:00,
2013-05-23 05:44:00,56.1,53.8,29.86,NNE,22,0.0,0.0,92,0.00,,,0.00,VWS V14.01,2013-05-23 10:44:00,
2013-05-23 05:45:00,55.7,53.4,29.86,NE,45,4.0,4.0,92,0.00,,,0.00,VWS V14.01,2013-05-23 10:45:00,
2013-05-23 05:47:00,55.7,53.4,29.86,North,0,0.0,0.0,92,0.00,,,0.00,VWS V14.01,2013-05-23 10:47:00,
2013-05-23 05:48:00,55.7,53.4,29.87,NNE,22,0.0,0.0,92,0.00,,,0.00,VWS V14.01,2013-05-23 10:48:00,
2013-05-23 05:50:00,55.7,53.4,29.87,North,0,0.0,0.0,92,0.00,,,0.00,VWS V14.01,2013-05-23 10:50:00,
2013-05-23 05:51:00,55.5,53.2,29.87,North,0,5.8,5.8,92,0.00,,,0.00,VWS V14.01,2013-05-23 10:51:00,
2013-05-23 05:54:00,55.5,53.2,29.87,NNE,22,0.0,0.0,92,0.00,,,0.00,VWS V14.01,2013-05-23 10:54:00,
2013-05-23 05:56:00,55.4,53.1,29.87,NNE,22,0.0,0.0,92,0.00,,,0.00,VWS V14.01,2013-05-23 10:56:00,
2013-05-23 05:58:00,55.5,53.2,29.88,North,0,0.0,9.2,92,0.00,,,0.00,VWS V14.01,2013-05-23 10:58:00,
2013-05-23 05:59:00,55.5,53.2,29.88,NNE,22,0.0,0.0,92,0.00,,,0.00,VWS V14.01,2013-05-23 10:59:00,
2013-05-23 06:00:00,55.4,53.1,29.88,NE,45,0.0,0.0,92,0.00,,,0.00,VWS V14.01,2013-05-23 11:00:00,
2013-05-23 06:01:00,55.2,52.9,29.88,North,0,0.0,0.0,92,0.00,,,0.00,VWS V14.01,2013-05-23 11:01:00,
2013-05-23 06:06:00,55.0,52.7,29.89,North,0,4.8,4.8,92,0.00,,,0.00,VWS V14.01,2013-05-23 11:06:00,
2013-05-23 06:07:00,55.0,52.4,29.89,NNW,338,0.0,4.8,91,0.00,,,0.00,VWS V14.01,2013-05-23 11:07:00,
2013-05-23 06:08:00,55.0,52.4,29.88,North,0,0.0,0.0,91,0.00,,,0.00,VWS V14.01,2013-05-23 11:08:00,
2013-05-23 06:12:00,55.0,52.4,29.89,NNE,22,0.0,0.0,91,0.00,,,0.00,VWS V14.01,2013-05-23 11:12:00,
2013-05-23 06:13:00,55.0,52.4,29.89,NNE,22,0.0,0.0,91,0.00,,,0.00,VWS V14.01,2013-05-23 11:13:00,
2013-05-23 06:14:00,55.0,52.4,29.89,NNW,338,0.0,0.0,91,0.00,,,0.00,VWS V14.01,2013-05-23 11:14:00,
2013-05-23 06:17:00,55.0,52.4,29.89,North,0,0.0,1.2,91,0.00,,,0.00,VWS V14.01,2013-05-23 11:17:00,
2013-05-23 06:19:00,55.0,52.4,29.89,NNE,22,0.0,0.0,91,0.00,,,0.00,VWS V14.01,2013-05-23 11:19:00,
2013-05-23 06:20:00,54.8,52.2,29.90,North,0,0.0,0.0,91,0.00,,,0.00,VWS V14.01,2013-05-23 11:20:00,
2013-05-23 06:22:00,55.0,52.4,29.90,North,0,0.0,0.0,91,0.00,,,0.00,VWS V14.01,2013-05-23 11:22:00,
2013-05-23 06:23:00,55.0,52.4,29.90,North,0,0.0,0.0,91,0.00,,,0.00,VWS V14.01,2013-05-23 11:23:00,
2013-05-23 06:26:00,55.0,52.4,29.90,NE,45,0.0,0.0,91,0.00,,,0.00,VWS V14.01,2013-05-23 11:26:00,
2013-05-23 06:27:00,55.0,52.4,29.90,NE,45,0.0,0.0,91,0.00,,,0.00,VWS V14.01,2013-05-23 11:27:00,
2013-05-23 06:31:00,54.8,52.2,29.90,North,0,0.0,0.0,91,0.00,,,0.00,VWS V14.01,2013-05-23 11:31:00,
2013-05-23 06:32:00,54.8,52.2,29.90,NNE,22,0.0,0.0,91,0.00,,,0.00,VWS V14.01,2013-05-23 11:32:00,
2013-05-23 06:34:00,54.8,52.2,29.90,NNE,22,2.6,2.6,91,0.00,,,0.00,VWS V14.01,2013-05-23 11:34:00,
2013-05-23 06:36:00,54.6,52.0,29.90,NNE,22,0.0,2.6,91,0.00,,,0.00,VWS V14.01,2013-05-23 11:36:00,
2013-05-23 06:38:00,54.6,52.0,29.91,NNW,338,0.0,0.0,91,0.00,,,0.00,VWS V14.01,2013-05-23 11:38:00,
2013-05-23 06:40:00,54.8,51.9,29.91,NNW,338,3.0,3.0,90,0.00,,,0.00,VWS V14.01,2013-05-23 11:40:00,
2013-05-23 06:41:00,54.6,51.7,29.91,North,0,4.4,4.4,90,0.00,,,0.00,VWS V14.01,2013-05-23 11:41:00,
2013-05-23 06:42:00,54.6,51.7,29.91,NNW,338,0.0,4.4,90,0.00,,,0.00,VWS V14.01,2013-05-23 11:42:00,
2013-05-23 06:44:00,54.6,51.7,29.91,NNW,338,0.0,0.0,90,0.00,,,0.00,VWS V14.01,2013-05-23 11:44:00,
2013-05-23 06:46:00,54.5,51.6,29.92,NNW,338,0.0,0.0,90,0.00,,,0.00,VWS V14.01,2013-05-23 11:46:00,
2013-05-23 06:48:00,54.6,51.7,29.92,NNW,338,0.0,0.0,90,0.00,,,0.00,VWS V14.01,2013-05-23 11:48:00,
2013-05-23 06:49:00,54.5,51.6,29.91,NNE,22,0.0,0.0,90,0.00,,,0.00,VWS V14.01,2013-05-23 11:49:00,
2013-05-23 06:53:00,54.5,51.6,29.92,NW,315,8.4,8.4,90,0.02,,-RA,0.02,VWS V14.01,2013-05-23 11:53:00,
2013-05-23 06:54:00,54.5,51.6,29.92,North,0,0.0,8.4,90,0.02,,-RA,0.02,VWS V14.01,2013-05-23 11:54:00,
2013-05-23 06:55:00,54.5,51.6,29.92,NE,45,0.0,0.0,90,0.02,,-RA,0.02,VWS V14.01,2013-05-23 11:55:00,
2013-05-23 06:56:00,54.5,51.6,29.92,North,0,0.0,0.0,90,0.02,,-RA,0.02,VWS V14.01,2013-05-23 11:56:00,
2013-05-23 06:57:00,54.5,51.6,29.92,NNE,22,0.0,0.0,90,0.02,,-RA,0.02,VWS V14.01,2013-05-23 11:57:00,
2013-05-23 06:58:00,54.5,51.6,29.93,North,0,0.0,0.0,90,0.02,,-RA,0.02,VWS V14.01,2013-05-23 11:58:00,
2013-05-23 07:00:00,54.5,51.6,29.93,North,0,2.6,2.6,90,0.02,,-RA,0.02,VWS V14.01,2013-05-23 12:00:00,
2013-05-23 07:01:00,54.5,51.6,29.93,NNW,338,0.0,2.6,90,0.02,,-RA,0.02,VWS V14.01,2013-05-23 12:01:00,
2013-05-23 07:02:00,54.5,51.6,29.93,North,0,0.0,2.6,90,0.02,,-RA,0.02,VWS V14.01,2013-05-23 12:02:00,
2013-05-23 07:05:00,54.3,51.4,29.93,North,0,0.0,7.0,90,0.02,,-RA,0.02,VWS V14.01,2013-05-23 12:05:00,
2013-05-23 07:08:00,54.5,51.6,29.93,North,0,0.0,0.0,90,0.02,,-RA,0.02,VWS V14.01,2013-05-23 12:08:00,
2013-05-23 07:09:00,54.5,51.6,29.93,North,0,0.0,0.0,90,0.02,,-RA,0.02,VWS V14.01,2013-05-23 12:09:00,
2013-05-23 07:10:00,54.5,51.6,29.94,NNW,338,0.0,0.0,90,0.02,,-RA,0.02,VWS V14.01,2013-05-23 12:10:00,
2013-05-23 07:11:00,54.5,51.6,29.93,NNW,338,0.0,0.0,90,0.02,,-RA,0.02,VWS V14.01,2013-05-23 12:11:00,
2013-05-23 07:13:00,54.5,51.6,29.94,NNE,22,0.0,0.0,90,0.02,,-RA,0.02,VWS V14.01,2013-05-23 12:13:00,
2013-05-23 07:15:00,54.5,51.9,29.94,North,0,2.6,2.6,91,0.02,,-RA,0.02,VWS V14.01,2013-05-23 12:15:00,
2013-05-23 07:16:00,54.5,51.9,29.94,North,0,2.6,2.6,91,0.02,,-RA,0.02,VWS V14.01,2013-05-23 12:16:00,
2013-05-23 07:18:00,54.5,51.9,29.93,North,0,0.0,2.6,91,0.02,,-RA,0.02,VWS V14.01,2013-05-23 12:18:00,
2013-05-23 07:22:00,54.5,51.9,29.94,NNW,338,0.0,0.0,91,0.02,,-RA,0.02,VWS V14.01,2013-05-23 12:22:00,
2013-05-23 07:23:00,54.5,51.9,29.94,North,0,0.0,0.0,91,0.02,,-RA,0.02,VWS V14.01,2013-05-23 12:23:00,
2013-05-23 07:24:00,54.5,51.9,29.94,North,0,0.0,0.0,91,0.02,,-RA,0.02,VWS V14.01,2013-05-23 12:24:00,
2013-05-23 07:26:00,54.5,51.9,29.94,North,0,0.0,6.6,91,0.02,,-RA,0.02,VWS V14.01,2013-05-23 12:26:00,
2013-05-23 07:27:00,54.5,51.9,29.94,North,0,0.0,0.0,91,0.02,,-RA,0.02,VWS V14.01,2013-05-23 12:27:00,
2013-05-23 07:30:00,54.5,51.9,29.94,North,0,0.0,0.0,91,0.02,,-RA,0.02,VWS V14.01,2013-05-23 12:30:00,
2013-05-23 07:31:00,54.5,51.9,29.94,NE,45,0.0,0.0,91,0.04,,-RA,0.04,VWS V14.01,2013-05-23 12:31:00,
2013-05-23 07:32:00,54.5,51.9,29.94,North,0,17.4,17.4,91,0.04,,-RA,0.04,VWS V14.01,2013-05-23 12:32:00,
2013-05-23 07:33:00,54.5,51.9,29.95,North,0,8.0,17.4,91,0.04,,-RA,0.04,VWS V14.01,2013-05-23 12:33:00,
2013-05-23 07:36:00,54.5,51.9,29.95,NNE,22,0.0,2.6,91,0.04,,-RA,0.04,VWS V14.01,2013-05-23 12:36:00,
2013-05-23 07:40:00,54.5,51.9,29.95,NNW,338,2.2,3.4,91,0.04,,-RA,0.04,VWS V14.01,2013-05-23 12:40:00,
2013-05-23 07:41:00,54.5,51.9,29.95,NNW,338,0.0,2.2,91,0.04,,-RA,0.04,VWS V14.01,2013-05-23 12:41:00,
2013-05-23 07:42:00,54.5,51.9,29.95,North,0,0.0,2.2,91,0.04,,-RA,0.04,VWS V14.01,2013-05-23 12:42:00,
2013-05-23 07:43:00,54.5,51.9,29.95,North,0,0.0,0.0,91,0.04,,-RA,0.04,VWS V14.01,2013-05-23 12:43:00,
2013-05-23 07:46:00,54.6,52.0,29.95,East,90,10.2,10.2,91,0.04,,-RA,0.04,VWS V14.01,2013-05-23 12:46:00,
2013-05-23 07:47:00,54.6,52.0,29.96,North,0,0.0,10.2,91,0.04,,-RA,0.04,VWS V14.01,2013-05-23 12:47:00,
2013-05-23 07:48:00,54.6,52.0,29.96,NNW,338,0.0,10.2,91,0.04,,-RA,0.04,VWS V14.01,2013-05-23 12:48:00,
2013-05-23 07:49:00,54.6,52.3,29.96,North,0,3.0,3.0,92,0.04,,-RA,0.04,VWS V14.01,2013-05-23 12:49:00,
2013-05-23 07:50:00,54.6,52.0,29.96,NNW,338,0.0,3.0,91,0.04,,-RA,0.04,VWS V14.01,2013-05-23 12:50:00,
2013-05-23 07:51:00,54.6,52.3,29.96,NNW,338,28.0,28.0,92,0.02,,-RA,0.04,VWS V14.01,2013-05-23 12:51:00,
2013-05-23 07:53:00,54.8,52.5,29.96,NNW,338,28.0,28.0,92,0.02,,-RA,0.04,VWS V14.01,2013-05-23 12:53:00,
2013-05-23 07:56:00,54.6,52.3,29.96,NNW,338,28.0,28.0,92,0.02,,-RA,0.04,VWS V14.01,2013-05-23 12:56:00,
2013-05-23 07:57:00,54.6,52.3,29.96,North,0,0.0,28.0,92,0.02,,-RA,0.04,VWS V14.01,2013-05-23 12:57:00,
2013-05-23 07:58:00,54.6,52.3,29.96,NNW,338,0.0,0.0,92,0.02,,-RA,0.04,VWS V14.01,2013-05-23 12:58:00,
2013-05-23 08:02:00,54.8,52.5,29.96,NNW,338,0.0,0.0,92,0.02,,-RA,0.04,VWS V14.01,2013-05-23 13:02:00,
2013-05-23 08:04:00,54.8,52.5,29.97,NNW,338,0.0,0.0,92,0.02,,-RA,0.04,VWS V14.01,2013-05-23 13:04:00,
2013-05-23 08:06:00,54.8,52.5,29.97,NE,45,0.0,3.0,92,0.02,,-RA,0.04,VWS V14.01,2013-05-23 13:06:00,
2013-05-23 08:07:00,54.8,52.5,29.97,NE,45,0.0,0.0,92,0.02,,-RA,0.04,VWS V14.01,2013-05-23 13:07:00,
2013-05-23 08:09:00,54.8,52.5,29.98,North,0,0.0,0.0,92,0.02,,-RA,0.04,VWS V14.01,2013-05-23 13:09:00,
2013-05-23 08:12:00,54.8,52.5,29.98,NNE,22,0.0,0.0,92,0.02,,-RA,0.04,VWS V14.01,2013-05-23 13:12:00,
2013-05-23 08:13:00,54.8,52.5,29.97,NNE,22,0.0,0.0,92,0.02,,-RA,0.04,VWS V14.01,2013-05-23 13:13:00,
2013-05-23 08:14:00,54.8,52.5,29.97,North,0,0.0,0.0,92,0.02,,-RA,0.04,VWS V14.01,2013-05-23 13:14:00,
2013-05-23 08:17:00,54.8,52.5,29.98,NNE,22,0.0,0.0,92,0.02,,-RA,0.04,VWS V14.01,2013-05-23 13:17:00,
2013-05-23 08:18:00,54.8,52.5,29.98,NNE,22,0.0,0.0,92,0.02,,-RA,0.04,VWS V14.01,2013-05-23 13:18:00,
2013-05-23 08:19:00,55.0,52.7,29.98,NNE,22,4.4,4.4,92,0.02,,-RA,0.04,VWS V14.01,2013-05-23 13:19:00,
2013-05-23 08:20:00,55.0,52.7,29.98,North,0,6.6,6.6,92,0.02,,-RA,0.04,VWS V14.01,2013-05-23 13:20:00,
2013-05-23 08:21:00,54.8,52.5,29.98,NNE,22,3.4,6.6,92,0.02,,-RA,0.04,VWS V14.01,2013-05-23 13:21:00,
2013-05-23 08:24:00,54.8,52.2,29.98,NE,45,0.0,0.0,91,0.02,,-RA,0.04,VWS V14.01,2013-05-23 13:24:00,
2013-05-23 08:27:00,55.0,52.4,29.98,NNE,22,0.0,0.0,91,0.02,,-RA,0.04,VWS V14.01,2013-05-23 13:27:00,
2013-05-23 08:28:00,55.0,52.4,29.98,NNW,338,4.8,4.8,91,0.02,,-RA,0.04,VWS V14.01,2013-05-23 13:28:00,
2013-05-23 08:30:00,55.0,52.4,29.99,NNW,338,0.0,0.0,91,0.02,,-RA,0.04,VWS V14.01,2013-05-23 13:30:00,
2013-05-23 08:31:00,55.0,52.4,29.98,NNE,22,0.0,0.0,91,0.02,,-RA,0.04,VWS V14.01,2013-05-23 13:31:00,
2013-05-23 08:33:00,55.0,52.4,29.98,NNE,22,0.0,0.0,91,0.00,,-RA,0.04,VWS V14.01,2013-05-23 13:33:00,
2013-05-23 08:35:00,55.2,52.6,29.99,NNW,338,0.0,5.2,91,0.00,,-RA,0.04,VWS V14.01,2013-05-23 13:35:00,
2013-05-23 08:36:00,55.0,52.4,29.99,NNW,338,0.0,5.2,91,0.00,,-RA,0.04,VWS V14.01,2013-05-23 13:36:00,
2013-05-23 08:38:00,55.0,52.4,29.99,NNW,338,6.2,6.2,91,0.00,,-RA,0.04,VWS V14.01,2013-05-23 13:38:00,
2013-05-23 08:41:00,55.0,52.4,29.99,North,0,0.0,0.0,91,0.00,,OVC025,0.04,VWS V14.01,2013-05-23 13:41:00,
2013-05-23 08:42:00,55.0,52.4,29.99,North,0,9.2,9.2,91,0.00,,OVC025,0.04,VWS V14.01,2013-05-23 13:42:00,
2013-05-23 08:44:00,54.8,52.2,29.99,North,0,0.0,9.2,91,0.00,,OVC025,0.04,VWS V14.01,2013-05-23 13:44:00,
2013-05-23 08:46:00,54.8,52.2,30.00,NNW,338,0.0,0.0,91,0.00,,OVC025,0.04,VWS V14.01,2013-05-23 13:46:00,
2013-05-23 08:49:00,54.8,52.2,30.00,North,0,0.0,0.0,91,0.00,,OVC025,0.04,VWS V14.01,2013-05-23 13:49:00,
2013-05-23 08:50:00,54.8,51.9,30.00,NE,45,0.0,0.0,90,0.00,,OVC025,0.04,VWS V14.01,2013-05-23 13:50:00,
2013-05-23 08:52:00,54.8,52.2,30.00,NNW,338,0.0,4.4,91,0.00,,OVC025,0.04,VWS V14.01,2013-05-23 13:52:00,
2013-05-23 08:54:00,54.8,51.9,30.00,North,0,0.0,0.0,90,0.00,,OVC025,0.04,VWS V14.01,2013-05-23 13:54:00,
2013-05-23 08:55:00,54.8,51.9,30.00,NNW,338,0.0,0.0,90,0.00,,OVC025,0.04,VWS V14.01,2013-05-23 13:55:00,
2013-05-23 08:56:00,54.8,51.9,30.01,NNW,338,4.4,4.4,90,0.00,,OVC025,0.04,VWS V14.01,2013-05-23 13:56:00,
2013-05-23 08:59:00,54.8,51.9,30.01,North,0,0.0,9.8,90,0.00,,OVC025,0.04,VWS V14.01,2013-05-23 13:59:00,
2013-05-23 09:00:00,54.8,51.9,30.01,NNW,338,2.2,9.8,90,0.00,,OVC025,0.04,VWS V14.01,2013-05-23 14:00:00,
2013-05-23 09:02:00,54.8,51.9,30.01,NE,45,8.0,8.0,90,0.00,,OVC025,0.04,VWS V14.01,2013-05-23 14:02:00,
2013-05-23 09:04:00,54.8,51.9,30.01,NE,45,0.0,8.0,90,0.00,,OVC025,0.04,VWS V14.01,2013-05-23 14:04:00,
2013-05-23 09:06:00,54.8,51.9,30.01,North,0,0.0,0.0,90,0.00,,OVC025,0.04,VWS V14.01,2013-05-23 14:06:00,
2013-05-23 09:08:00,54.8,51.9,30.01,NNE,22,0.0,0.0,90,0.00,,OVC025,0.04,VWS V14.01,2013-05-23 14:08:00,
2013-05-23 09:09:00,55.0,52.1,30.01,NNE,22,0.0,0.0,90,0.00,,OVC025,0.04,VWS V14.01,2013-05-23 14:09:00,
2013-05-23 09:10:00,54.8,51.9,30.01,North,0,4.4,4.4,90,0.00,,OVC025,0.04,VWS V14.01,2013-05-23 14:10:00,
2013-05-23 09:12:00,55.0,52.1,30.02,North,0,0.0,4.4,90,0.00,,OVC025,0.04,VWS V14.01,2013-05-23 14:12:00,
2013-05-23 09:13:00,54.8,51.9,30.01,North,0,0.0,0.0,90,0.00,,OVC025,0.04,VWS V14.01,2013-05-23 14:13:00,
2013-05-23 09:16:00,55.0,52.1,30.02,North,0,0.0,12.4,90,0.00,,OVC025,0.04,VWS V14.01,2013-05-23 14:16:00,
2013-05-23 09:20:00,55.0,52.1,30.02,NNE,22,0.0,0.0,90,0.00,,OVC025,0.04,VWS V14.01,2013-05-23 14:20:00,
2013-05-23 09:22:00,55.5,52.6,30.02,North,0,0.0,0.0,90,0.00,,OVC025,0.04,VWS V14.01,2013-05-23 14:22:00,
2013-05-23 09:26:00,55.5,52.3,30.02,North,0,4.8,4.8,89,0.00,,OVC025,0.04,VWS V14.01,2013-05-23 14:26:00,
2013-05-23 09:27:00,55.5,52.3,30.02,NNE,22,0.0,4.8,89,0.00,,OVC025,0.04,VWS V14.01,2013-05-23 14:27:00,
2013-05-23 09:28:00,55.5,52.3,30.02,North,0,11.0,11.0,89,0.00,,OVC025,0.04,VWS V14.01,2013-05-23 14:28:00,
2013-05-23 09:29:00,55.5,52.3,30.02,NNW,338,0.0,11.0,89,0.00,,OVC025,0.04,VWS V14.01,2013-05-23 14:29:00,
2013-05-23 09:31:00,55.5,52.0,30.03,NNE,22,0.0,0.0,88,0.00,,OVC025,0.04,VWS V14.01,2013-05-23 14:31:00,
2013-05-23 09:36:00,55.7,52.2,30.03,NE,45,0.0,0.0,88,0.00,,OVC025,0.04,VWS V14.01,2013-05-23 14:36:00,
2013-05-23 09:37:00,55.7,51.9,30.03,East,90,0.0,0.0,87,0.00,,OVC025,0.04,VWS V14.01,2013-05-23 14:37:00,
2013-05-23 09:38:00,55.7,51.9,30.03,NE,45,0.0,0.0,87,0.00,,OVC025,0.04,VWS V14.01,2013-05-23 14:38:00,
2013-05-23 09:40:00,55.7,51.9,30.03,NNW,338,0.0,0.0,87,0.00,,OVC025,0.04,VWS V14.01,2013-05-23 14:40:00,
2013-05-23 09:41:00,55.7,51.6,30.03,NNW,338,5.2,5.2,86,0.00,,OVC025,0.04,VWS V14.01,2013-05-23 14:41:00,
2013-05-23 09:42:00,55.7,51.6,30.03,NE,45,0.0,0.0,86,0.00,,OVC025,0.04,VWS V14.01,2013-05-23 14:42:00,
2013-05-23 09:46:00,55.7,51.6,30.03,North,0,0.0,0.0,86,0.00,,OVC025,0.04,VWS V14.01,2013-05-23 14:46:00,
2013-05-23 09:47:00,55.9,51.8,30.03,NNE,22,4.8,4.8,86,0.00,,OVC025,0.04,VWS V14.01,2013-05-23 14:47:00,
2013-05-23 09:48:00,55.7,51.6,30.03,North,0,0.0,4.8,86,0.00,,OVC025,0.04,VWS V14.01,2013-05-23 14:48:00,
2013-05-23 09:53:00,55.7,51.3,30.03,West,270,4.8,4.8,85,0.00,,-RA,0.04,VWS V14.01,2013-05-23 14:53:00,
2013-05-23 09:54:00,55.7,51.3,30.03,NNE,22,0.0,4.8,85,0.00,,-RA,0.04,VWS V14.01,2013-05-23 14:54:00,
2013-05-23 09:57:00,55.7,51.0,30.04,North,0,0.0,0.0,84,0.00,,-RA,0.04,VWS V14.01,2013-05-23 14:57:00,
2013-05-23 09:58:00,55.7,51.0,30.04,NNE,22,0.0,0.0,84,0.00,,-RA,0.04,VWS V14.01,2013-05-23 14:58:00,
2013-05-23 10:02:00,55.7,50.6,30.04,NNW,338,1.2,1.2,83,0.00,,-RA,0.04,VWS V14.01,2013-05-23 15:02:00,
2013-05-23 10:04:00,56.1,51.0,30.04,NE,45,0.0,0.0,83,0.00,,-RA,0.04,VWS V14.01,2013-05-23 15:04:00,
2013-05-23 10:06:00,56.1,51.0,30.04,ENE,68,3.4,3.4,83,0.00,,-RA,0.04,VWS V14.01,2013-05-23 15:06:00,
2013-05-23 10:08:00,56.3,50.9,30.04,WNW,292,0.0,0.0,82,0.00,,-RA,0.04,VWS V14.01,2013-05-23 15:08:00,
2013-05-23 10:10:00,56.6,51.2,30.04,NNW,338,5.2,5.2,82,0.00,,-RA,0.04,VWS V14.01,2013-05-23 15:10:00,
2013-05-23 10:12:00,56.6,51.2,30.04,NW,315,0.0,5.2,82,0.00,,-RA,0.04,VWS V14.01,2013-05-23 15:12:00,
2013-05-23 10:14:00,56.8,51.0,30.05,NE,45,0.0,0.0,81,0.00,,-RA,0.04,VWS V14.01,2013-05-23 15:14:00,
2013-05-23 10:16:00,56.8,51.0,30.05,NE,45,0.0,5.8,81,0.00,,-RA,0.04,VWS V14.01,2013-05-23 15:16:00,
2013-05-23 10:17:00,56.8,51.0,30.05,NE,45,0.8,0.8,81,0.00,,-RA,0.04,VWS V14.01,2013-05-23 15:17:00,
2013-05-23 10:18:00,57.0,51.2,30.05,North,0,2.6,2.6,81,0.00,,-RA,0.04,VWS V14.01,2013-05-23 15:18:00,
2013-05-23 10:21:00,56.8,50.7,30.05,NNW,338,0.0,0.0,80,0.00,,-RA,0.04,VWS V14.01,2013-05-23 15:21:00,
2013-05-23 10:22:00,56.8,50.7,30.05,North,0,7.6,7.6,80,0.00,,-RA,0.04,VWS V14.01,2013-05-23 15:22:00,
2013-05-23 10:23:00,56.8,50.4,30.05,North,0,0.0,0.0,79,0.00,,-RA,0.04,VWS V14.01,2013-05-23 15:23:00,
2013-05-23 10:27:00,56.6,49.8,30.05,North,0,0.0,0.0,78,0.00,,-RA,0.04,VWS V14.01,2013-05-23 15:27:00,
2013-05-23 10:28:00,56.6,49.8,30.05,NE,45,0.0,0.0,78,0.00,,-RA,0.04,VWS V14.01,2013-05-23 15:28:00,
2013-05-23 10:30:00,56.6,49.5,30.05,North,0,8.0,8.0,77,0.00,,-RA,0.04,VWS V14.01,2013-05-23 15:30:00,
2013-05-23 10:33:00,56.6,49.5,30.05,NNE,22,0.0,0.0,77,0.00,,-RA,0.04,VWS V14.01,2013-05-23 15:33:00,
2013-05-23 10:34:00,56.6,49.5,30.05,North,0,2.2,2.2,77,0.00,,-RA,0.04,VWS V14.01,2013-05-23 15:34:00,
2013-05-23 10:35:00,56.6,49.5,30.05,NNW,338,0.0,0.0,77,0.00,,-RA,0.04,VWS V14.01,2013-05-23 15:35:00,
2013-05-23 10:39:00,56.8,49.7,30.05,North,0,0.0,0.0,77,0.00,,-RA,0.04,VWS V14.01,2013-05-23 15:39:00,
2013-05-23 10:40:00,56.8,49.7,30.05,North,0,0.0,0.0,77,0.00,,-RA,0.04,VWS V14.01,2013-05-23 15:40:00,
2013-05-23 10:41:00,56.8,49.7,30.05,North,0,0.0,0.0,77,0.00,,-RA,0.04,VWS V14.01,2013-05-23 15:41:00,
2013-05-23 10:42:00,56.8,49.7,30.05,North,0,0.0,0.0,77,0.00,,-RA,0.04,VWS V14.01,2013-05-23 15:42:00,
2013-05-23 10:44:00,56.8,49.7,30.05,North,0,0.0,0.0,77,0.00,,-RA,0.04,VWS V14.01,2013-05-23 15:44:00,
2013-05-23 10:45:00,56.8,49.7,30.05,North,0,0.0,0.0,77,0.00,,-RA,0.04,VWS V14.01,2013-05-23 15:45:00,
2013-05-23 10:46:00,56.8,49.7,30.05,North,0,0.0,0.0,77,0.00,,-RA,0.04,VWS V14.01,2013-05-23 15:46:00,
2013-05-23 10:47:00,56.8,49.7,30.05,North,0,0.0,0.0,77,0.00,,-RA,0.04,VWS V14.01,2013-05-23 15:47:00,
2013-05-23 10:49:00,56.8,49.7,30.05,North,0,0.0,0.0,77,0.00,,-RA,0.04,VWS V14.01,2013-05-23 15:49:00,
2013-05-23 10:50:00,56.8,49.7,30.05,North,0,0.0,0.0,77,0.00,,OVC030,0.04,VWS V14.01,2013-05-23 15:50:00,
2013-05-23 10:52:00,56.8,49.7,30.05,North,0,0.0,0.0,77,0.00,,OVC030,0.04,VWS V14.01,2013-05-23 15:52:00,
2013-05-23 10:54:00,56.8,49.7,30.05,North,0,0.0,0.0,77,0.00,,OVC030,0.04,VWS V14.01,2013-05-23 15:54:00,
2013-05-23 10:56:00,56.8,49.7,30.05,North,0,0.0,0.0,77,0.00,,OVC030,0.04,VWS V14.01,2013-05-23 15:56:00,
2013-05-23 10:58:00,56.8,49.7,30.05,North,0,0.0,0.0,77,0.00,,OVC030,0.04,VWS V14.01,2013-05-23 15:58:00,
2013-05-23 11:01:00,58.4,49.4,30.05,NNE,22,5.8,5.8,72,0.00,,OVC030,0.04,VWS V14.01,2013-05-23 16:01:00,
2013-05-23 11:02:00,58.4,49.4,30.05,NNE,22,5.8,5.8,72,0.00,,OVC030,0.04,VWS V14.01,2013-05-23 16:02:00,
2013-05-23 11:03:00,58.4,49.4,30.05,NNE,22,5.8,5.8,72,0.00,,OVC030,0.04,VWS V14.01,2013-05-23 16:03:00,
2013-05-23 11:05:00,58.4,49.4,30.05,NNE,22,5.8,5.8,72,0.00,,OVC030,0.04,VWS V14.01,2013-05-23 16:05:00,
2013-05-23 11:06:00,58.4,49.4,30.05,NNE,22,5.8,5.8,72,0.00,,OVC030,0.04,VWS V14.01,2013-05-23 16:06:00,
2013-05-23 11:07:00,58.4,49.4,30.05,NNE,22,5.8,5.8,72,0.00,,OVC030,0.04,VWS V14.01,2013-05-23 16:07:00,
2013-05-23 11:08:00,58.4,49.4,30.05,NNE,22,5.8,5.8,72,0.00,,OVC030,0.04,VWS V14.01,2013-05-23 16:08:00,
2013-05-23 11:11:00,58.4,49.4,30.05,NNE,22,5.8,5.8,72,0.00,,OVC030,0.04,VWS V14.01,2013-05-23 16:11:00,
2013-05-23 11:14:00,58.4,49.4,30.05,NNE,22,5.8,5.8,72,0.00,,OVC030,0.04,VWS V14.01,2013-05-23 16:14:00,
2013-05-23 11:16:00,58.4,49.4,30.05,NNE,22,5.8,5.8,72,0.00,,OVC030,0.04,VWS V14.01,2013-05-23 16:16:00,
2013-05-23 11:17:00,58.4,49.4,30.05,NNE,22,5.8,5.8,72,0.00,,OVC030,0.04,VWS V14.01,2013-05-23 16:17:00,
2013-05-23 11:18:00,58.4,49.4,30.05,NNE,22,5.8,5.8,72,0.00,,OVC030,0.04,VWS V14.01,2013-05-23 16:18:00,
2013-05-23 11:19:00,58.4,49.4,30.05,NNE,22,5.8,5.8,72,0.00,,OVC030,0.04,VWS V14.01,2013-05-23 16:19:00,
2013-05-23 11:22:00,58.4,49.4,30.05,NNE,22,5.8,5.8,72,0.00,,OVC030,0.04,VWS V14.01,2013-05-23 16:22:00,
2013-05-23 11:25:00,58.4,49.4,30.05,NNE,22,5.8,5.8,72,0.00,,OVC030,0.04,VWS V14.01,2013-05-23 16:25:00,
2013-05-23 11:26:00,58.4,49.4,30.05,NNE,22,5.8,5.8,72,0.00,,OVC030,0.04,VWS V14.01,2013-05-23 16:26:00,
2013-05-23 11:28:00,58.4,49.4,30.05,NNE,22,5.8,5.8,72,0.00,,OVC030,0.04,VWS V14.01,2013-05-23 16:28:00,
2013-05-23 11:33:00,58.4,49.4,30.05,NNE,22,5.8,5.8,72,0.00,,OVC030,0.04,VWS V14.01,2013-05-23 16:33:00,
2013-05-23 11:34:00,58.4,49.4,30.05,NNE,22,5.8,5.8,72,0.00,,OVC030,0.04,VWS V14.01,2013-05-23 16:34:00,
2013-05-23 11:37:00,58.4,49.4,30.05,NNE,22,5.8,5.8,72,0.00,,OVC030,0.04,VWS V14.01,2013-05-23 16:37:00,
2013-05-23 11:38:00,58.4,49.4,30.05,NNE,22,5.8,5.8,72,0.00,,OVC030,0.04,VWS V14.01,2013-05-23 16:38:00,
2013-05-23 11:39:00,58.4,49.4,30.05,NNE,22,5.8,5.8,72,0.00,,OVC030,0.04,VWS V14.01,2013-05-23 16:39:00,
2013-05-23 11:40:00,58.4,49.4,30.05,NNE,22,5.8,5.8,72,0.00,,OVC030,0.04,VWS V14.01,2013-05-23 16:40:00,
2013-05-23 11:44:00,58.4,49.4,30.05,NNE,22,5.8,5.8,72,0.00,,OVC030,0.04,VWS V14.01,2013-05-23 16:44:00,
2013-05-23 11:46:00,58.4,49.4,30.05,NNE,22,5.8,5.8,72,0.00,,OVC030,0.04,VWS V14.01,2013-05-23 16:46:00,
2013-05-23 11:48:00,58.4,49.4,30.05,NNE,22,5.8,5.8,72,0.00,,OVC030,0.04,VWS V14.01,2013-05-23 16:48:00,
2013-05-23 11:50:00,58.4,49.4,30.05,NNE,22,5.8,5.8,72,0.00,,OVC030,0.04,VWS V14.01,2013-05-23 16:50:00,
2013-05-23 11:54:00,58.4,49.4,30.05,NNE,22,5.8,5.8,72,0.00,,OVC030,0.04,VWS V14.01,2013-05-23 16:54:00,
2013-05-23 11:56:00,58.4,49.4,30.05,NNE,22,5.8,5.8,72,0.00,,OVC030,0.04,VWS V14.01,2013-05-23 16:56:00,
2013-05-23 11:59:00,58.4,49.4,30.05,NNE,22,5.8,5.8,72,0.00,,OVC030,0.04,VWS V14.01,2013-05-23 16:59:00,
2013-05-23 12:00:00,58.4,49.4,30.05,NNE,22,5.8,5.8,72,0.00,,OVC030,0.04,VWS V14.01,2013-05-23 17:00:00,
2013-05-23 12:05:00,58.4,49.4,30.05,NNE,22,5.8,5.8,72,0.00,,OVC040,0.04,VWS V14.01,2013-05-23 17:05:00,
2013-05-23 12:07:00,58.4,49.4,30.05,NNE,22,5.8,5.8,72,0.00,,OVC040,0.04,VWS V14.01,2013-05-23 17:07:00,
2013-05-23 12:08:00,58.4,49.4,30.05,NNE,22,5.8,5.8,72,0.00,,OVC040,0.04,VWS V14.01,2013-05-23 17:08:00,
2013-05-23 12:09:00,58.4,49.4,30.05,NNE,22,5.8,5.8,72,0.00,,OVC040,0.04,VWS V14.01,2013-05-23 17:09:00,
2013-05-23 12:10:00,58.4,49.4,30.05,NNE,22,5.8,5.8,72,0.00,,OVC040,0.04,VWS V14.01,2013-05-23 17:10:00,
2013-05-23 12:12:00,58.4,49.4,30.05,NNE,22,5.8,5.8,72,0.00,,OVC040,0.04,VWS V14.01,2013-05-23 17:12:00,
2013-05-23 12:16:00,58.4,49.4,30.05,NNE,22,5.8,5.8,72,0.00,,OVC040,0.04,VWS V14.01,2013-05-23 17:16:00,
2013-05-23 12:17:00,58.4,49.4,30.05,NNE,22,5.8,5.8,72,0.00,,OVC040,0.04,VWS V14.01,2013-05-23 17:17:00,
2013-05-23 12:18:00,58.4,49.4,30.05,NNE,22,5.8,5.8,72,0.00,,OVC040,0.04,VWS V14.01,2013-05-23 17:18:00,
2013-05-23 12:22:00,58.4,49.4,30.05,NNE,22,5.8,5.8,72,0.00,,OVC040,0.04,VWS V14.01,2013-05-23 17:22:00,
2013-05-23 12:23:00,58.4,49.4,30.05,NNE,22,5.8,5.8,72,0.00,,OVC040,0.04,VWS V14.01,2013-05-23 17:23:00,
2013-05-23 12:25:00,58.4,49.4,30.05,NNE,22,5.8,5.8,72,0.00,,OVC040,0.04,VWS V14.01,2013-05-23 17:25:00,
2013-05-23 12:26:00,58.4,49.4,30.05,NNE,22,5.8,5.8,72,0.00,,OVC040,0.04,VWS V14.01,2013-05-23 17:26:00,
2013-05-23 12:29:00,58.4,49.4,30.05,NNE,22,5.8,5.8,72,0.00,,OVC040,0.04,VWS V14.01,2013-05-23 17:29:00,
2013-05-23 12:30:00,58.4,49.4,30.05,NNE,22,5.8,5.8,72,0.00,,OVC040,0.04,VWS V14.01,2013-05-23 17:30:00,
2013-05-23 12:32:00,58.4,49.4,30.05,NNE,22,5.8,5.8,72,0.00,,OVC040,0.04,VWS V14.01,2013-05-23 17:32:00,
2013-05-23 12:34:00,58.4,49.4,30.05,NNE,22,5.8,5.8,72,0.00,,OVC040,0.04,VWS V14.01,2013-05-23 17:34:00,
2013-05-23 12:36:00,58.4,49.4,30.05,NNE,22,5.8,5.8,72,0.00,,OVC040,0.04,VWS V14.01,2013-05-23 17:36:00,
2013-05-23 12:37:00,58.4,49.4,30.05,NNE,22,5.8,5.8,72,0.00,,OVC040,0.04,VWS V14.01,2013-05-23 17:37:00,
2013-05-23 12:38:00,58.4,49.4,30.05,NNE,22,5.8,5.8,72,0.00,,OVC040,0.04,VWS V14.01,2013-05-23 17:38:00,
2013-05-23 12:39:00,58.4,49.4,30.05,NNE,22,5.8,5.8,72,0.00,,OVC040,0.04,VWS V14.01,2013-05-23 17:39:00,
2013-05-23 12:43:00,58.4,49.4,30.05,NNE,22,5.8,5.8,72,0.00,,OVC038,0.04,VWS V14.01,2013-05-23 17:43:00,
2013-05-23 12:44:00,58.4,49.4,30.05,NNE,22,5.8,5.8,72,0.00,,OVC038,0.04,VWS V14.01,2013-05-23 17:44:00,
2013-05-23 12:45:00,58.4,49.4,30.05,NNE,22,5.8,5.8,72,0.00,,OVC038,0.04,VWS V14.01,2013-05-23 17:45:00,
2013-05-23 12:47:00,58.4,49.4,30.05,NNE,22,5.8,5.8,72,0.00,,OVC038,0.04,VWS V14.01,2013-05-23 17:47:00,
2013-05-23 12:48:00,58.4,49.4,30.05,NNE,22,5.8,5.8,72,0.00,,OVC038,0.04,VWS V14.01,2013-05-23 17:48:00,
2013-05-23 12:50:00,58.4,49.4,30.05,NNE,22,5.8,5.8,72,0.00,,OVC038,0.04,VWS V14.01,2013-05-23 17:50:00,
2013-05-23 12:52:00,58.4,49.4,30.05,NNE,22,5.8,5.8,72,0.00,,OVC038,0.04,VWS V14.01,2013-05-23 17:52:00,
2013-05-23 12:53:00,58.4,49.4,30.05,NNE,22,5.8,5.8,72,0.00,,OVC038,0.04,VWS V14.01,2013-05-23 17:53:00,
2013-05-23 12:56:00,58.4,49.4,30.05,NNE,22,5.8,5.8,72,0.00,,OVC038,0.04,VWS V14.01,2013-05-23 17:56:00,
2013-05-23 12:57:00,58.4,49.4,30.05,NNE,22,5.8,5.8,72,0.00,,OVC038,0.04,VWS V14.01,2013-05-23 17:57:00,
2013-05-23 12:59:00,58.4,49.4,30.05,NNE,22,5.8,5.8,72,0.00,,OVC038,0.04,VWS V14.01,2013-05-23 17:59:00,
2013-05-23 13:01:00,58.4,49.4,30.05,NNE,22,5.8,5.8,72,0.00,,OVC040,0.04,VWS V14.01,2013-05-23 18:01:00,
2013-05-23 13:02:00,58.4,49.4,30.05,NNE,22,5.8,5.8,72,0.00,,OVC040,0.04,VWS V14.01,2013-05-23 18:02:00,
2013-05-23 13:05:00,58.4,49.4,30.05,NNE,22,5.8,5.8,72,0.00,,OVC040,0.04,VWS V14.01,2013-05-23 18:05:00,
2013-05-23 13:06:00,58.4,49.4,30.05,NNE,22,5.8,5.8,72,0.00,,OVC040,0.04,VWS V14.01,2013-05-23 18:06:00,
2013-05-23 13:07:00,58.4,49.4,30.05,NNE,22,5.8,5.8,72,0.00,,OVC040,0.04,VWS V14.01,2013-05-23 18:07:00,
2013-05-23 13:08:00,58.4,49.4,30.05,NNE,22,5.8,5.8,72,0.00,,OVC040,0.04,VWS V14.01,2013-05-23 18:08:00,
2013-05-23 13:10:00,58.4,49.4,30.05,NNE,22,5.8,5.8,72,0.00,,OVC038,0.04,VWS V14.01,2013-05-23 18:10:00,
2013-05-23 13:11:00,58.4,49.4,30.05,NNE,22,5.8,5.8,72,0.00,,OVC038,0.04,VWS V14.01,2013-05-23 18:11:00,
2013-05-23 13:13:00,58.4,49.4,30.05,NNE,22,5.8,5.8,72,0.00,,OVC038,0.04,VWS V14.01,2013-05-23 18:13:00,
2013-05-23 13:14:00,58.4,49.4,30.05,NNE,22,5.8,5.8,72,0.00,,OVC038,0.04,VWS V14.01,2013-05-23 18:14:00,
2013-05-23 13:16:00,58.4,49.4,30.05,NNE,22,5.8,5.8,72,0.00,,OVC038,0.04,VWS V14.01,2013-05-23 18:16:00,
2013-05-23 13:19:00,58.4,49.4,30.05,NNE,22,5.8,5.8,72,0.00,,OVC038,0.04,VWS V14.01,2013-05-23 18:19:00,
2013-05-23 13:21:00,58.4,49.4,30.05,NNE,22,5.8,5.8,72,0.00,,OVC038,0.04,VWS V14.01,2013-05-23 18:21:00,
2013-05-23 13:22:00,58.4,49.4,30.05,NNE,22,5.8,5.8,72,0.00,,OVC038,0.04,VWS V14.01,2013-05-23 18:22:00,
2013-05-23 13:24:00,58.4,49.4,30.05,NNE,22,5.8,5.8,72,0.00,,OVC038,0.04,VWS V14.01,2013-05-23 18:24:00,
2013-05-23 13:26:00,58.4,49.4,30.05,NNE,22,5.8,5.8,72,0.00,,OVC038,0.04,VWS V14.01,2013-05-23 18:26:00,
2013-05-23 13:28:00,58.4,49.4,30.05,NNE,22,5.8,5.8,72,0.00,,OVC038,0.04,VWS V14.01,2013-05-23 18:28:00,
2013-05-23 13:29:00,58.4,49.4,30.05,NNE,22,5.8,5.8,72,0.00,,OVC038,0.04,VWS V14.01,2013-05-23 18:29:00,
2013-05-23 13:30:00,58.4,49.4,30.05,NNE,22,5.8,5.8,72,0.00,,OVC038,0.04,VWS V14.01,2013-05-23 18:30:00,
2013-05-23 13:32:00,58.4,49.4,30.05,NNE,22,5.8,5.8,72,0.00,,OVC038,0.04,VWS V14.01,2013-05-23 18:32:00,
2013-05-23 13:35:00,58.4,49.4,30.05,NNE,22,5.8,5.8,72,0.00,,OVC038,0.04,VWS V14.01,2013-05-23 18:35:00,
2013-05-23 13:36:00,58.4,49.4,30.05,NNE,22,5.8,5.8,72,0.00,,OVC038,0.04,VWS V14.01,2013-05-23 18:36:00,
2013-05-23 13:37:00,58.4,49.4,30.05,NNE,22,5.8,5.8,72,0.00,,OVC038,0.04,VWS V14.01,2013-05-23 18:37:00,
2013-05-23 13:39:00,58.4,49.4,30.05,NNE,22,5.8,5.8,72,0.00,,OVC038,0.04,VWS V14.01,2013-05-23 18:39:00,
2013-05-23 13:42:00,58.4,49.4,30.05,NNE,22,5.8,5.8,72,0.00,,OVC038,0.04,VWS V14.01,2013-05-23 18:42:00,
2013-05-23 13:43:00,58.4,49.4,30.05,NNE,22,5.8,5.8,72,0.00,,OVC038,0.04,VWS V14.01,2013-05-23 18:43:00,
2013-05-23 13:44:00,58.4,49.4,30.05,NNE,22,5.8,5.8,72,0.00,,OVC038,0.04,VWS V14.01,2013-05-23 18:44:00,
2013-05-23 13:47:00,58.4,49.4,30.05,NNE,22,5.8,5.8,72,0.00,,OVC038,0.04,VWS V14.01,2013-05-23 18:47:00,
2013-05-23 13:48:00,58.4,49.4,30.05,NNE,22,5.8,5.8,72,0.00,,OVC038,0.04,VWS V14.01,2013-05-23 18:48:00,
2013-05-23 13:50:00,58.4,49.4,30.05,NNE,22,5.8,5.8,72,0.00,,OVC038,0.04,VWS V14.01,2013-05-23 18:50:00,
2013-05-23 13:55:00,58.4,49.4,30.05,NNE,22,5.8,5.8,72,0.00,,OVC038,0.04,VWS V14.01,2013-05-23 18:55:00,
2013-05-23 13:56:00,58.4,49.4,30.05,NNE,22,5.8,5.8,72,0.00,,OVC038,0.04,VWS V14.01,2013-05-23 18:56:00,
2013-05-23 13:59:00,58.4,49.4,30.05,NNE,22,5.8,5.8,72,0.00,,OVC038,0.04,VWS V14.01,2013-05-23 18:59:00,
2013-05-23 14:00:00,58.4,49.4,30.05,NNE,22,5.8,5.8,72,0.00,,OVC038,0.04,VWS V14.01,2013-05-23 19:00:00,
2013-05-23 14:01:00,58.4,49.4,30.05,NNE,22,5.8,5.8,72,0.00,,OVC037,0.04,VWS V14.01,2013-05-23 19:01:00,
2013-05-23 14:02:00,58.4,49.4,30.05,NNE,22,5.8,5.8,72,0.00,,OVC037,0.04,VWS V14.01,2013-05-23 19:02:00,
2013-05-23 14:05:00,58.4,49.4,30.05,NNE,22,5.8,5.8,72,0.00,,OVC037,0.04,VWS V14.01,2013-05-23 19:05:00,
2013-05-23 14:06:00,58.4,49.4,30.05,NNE,22,5.8,5.8,72,0.00,,OVC037,0.04,VWS V14.01,2013-05-23 19:06:00,
2013-05-23 14:07:00,58.4,49.4,30.05,NNE,22,5.8,5.8,72,0.00,,OVC037,0.04,VWS V14.01,2013-05-23 19:07:00,
2013-05-23 14:08:00,58.4,49.4,30.05,NNE,22,5.8,5.8,72,0.00,,OVC037,0.04,VWS V14.01,2013-05-23 19:08:00,
2013-05-23 14:09:00,58.4,49.4,30.05,NNE,22,5.8,5.8,72,0.00,,OVC037,0.04,VWS V14.01,2013-05-23 19:09:00,
2013-05-23 14:12:00,58.4,49.4,30.05,NNE,22,5.8,5.8,72,0.00,,OVC037,0.04,VWS V14.01,2013-05-23 19:12:00,
2013-05-23 14:14:00,58.4,49.4,30.05,NNE,22,5.8,5.8,72,0.00,,OVC037,0.04,VWS V14.01,2013-05-23 19:14:00,
2013-05-23 14:15:00,58.4,49.4,30.05,NNE,22,5.8,5.8,72,0.00,,OVC037,0.04,VWS V14.01,2013-05-23 19:15:00,
2013-05-23 14:18:00,58.4,49.4,30.05,NNE,22,5.8,5.8,72,0.00,,OVC037,0.04,VWS V14.01,2013-05-23 19:18:00,
2013-05-23 14:19:00,58.4,49.4,30.05,NNE,22,5.8,5.8,72,0.00,,OVC037,0.04,VWS V14.01,2013-05-23 19:19:00,
2013-05-23 14:20:00,58.4,49.4,30.05,NNE,22,5.8,5.8,72,0.00,,OVC037,0.04,VWS V14.01,2013-05-23 19:20:00,
2013-05-23 14:21:00,58.4,49.4,30.05,NNE,22,5.8,5.8,72,0.00,,OVC037,0.04,VWS V14.01,2013-05-23 19:21:00,
2013-05-23 14:23:00,58.4,49.4,30.05,NNE,22,5.8,5.8,72,0.00,,OVC037,0.04,VWS V14.01,2013-05-23 19:23:00,
2013-05-23 14:24:00,58.4,49.4,30.05,NNE,22,5.8,5.8,72,0.00,,OVC037,0.04,VWS V14.01,2013-05-23 19:24:00,
2013-05-23 14:26:00,58.4,49.4,30.05,NNE,22,5.8,5.8,72,0.00,,OVC037,0.04,VWS V14.01,2013-05-23 19:26:00,
2013-05-23 14:28:00,58.4,49.4,30.05,NNE,22,5.8,5.8,72,0.00,,OVC037,0.04,VWS V14.01,2013-05-23 19:28:00,
2013-05-23 14:30:00,58.4,49.4,30.05,NNE,22,5.8,5.8,72,0.00,,OVC037,0.04,VWS V14.01,2013-05-23 19:30:00,
2013-05-23 14:31:00,58.4,49.4,30.05,NNE,22,5.8,5.8,72,0.00,,OVC037,0.04,VWS V14.01,2013-05-23 19:31:00,
2013-05-23 14:33:00,58.4,49.4,30.05,NNE,22,5.8,5.8,72,0.00,,OVC037,0.04,VWS V14.01,2013-05-23 19:33:00,
2013-05-23 14:34:00,58.4,49.4,30.05,NNE,22,5.8,5.8,72,0.00,,OVC037,0.04,VWS V14.01,2013-05-23 19:34:00,
2013-05-23 14:36:00,58.4,49.4,30.05,NNE,22,5.8,5.8,72,0.00,,OVC037,0.04,VWS V14.01,2013-05-23 19:36:00,
2013-05-23 14:38:00,58.4,49.4,30.05,NNE,22,5.8,5.8,72,0.00,,OVC037,0.04,VWS V14.01,2013-05-23 19:38:00,
2013-05-23 14:39:00,58.4,49.4,30.05,NNE,22,5.8,5.8,72,0.00,,OVC037,0.04,VWS V14.01,2013-05-23 19:39:00,
2013-05-23 14:41:00,58.4,49.4,30.05,NNE,22,5.8,5.8,72,0.00,,OVC037,0.04,VWS V14.01,2013-05-23 19:41:00,
2013-05-23 14:43:00,58.4,49.4,30.05,NNE,22,5.8,5.8,72,0.00,,OVC037,0.04,VWS V14.01,2013-05-23 19:43:00,
2013-05-23 14:44:00,58.4,49.4,30.05,NNE,22,5.8,5.8,72,0.00,,OVC037,0.04,VWS V14.01,2013-05-23 19:44:00,
2013-05-23 14:46:00,58.4,49.4,30.05,NNE,22,5.8,5.8,72,0.00,,OVC037,0.04,VWS V14.01,2013-05-23 19:46:00,
2013-05-23 14:47:00,58.4,49.4,30.05,NNE,22,5.8,5.8,72,0.00,,OVC037,0.04,VWS V14.01,2013-05-23 19:47:00,
2013-05-23 14:50:00,58.4,49.4,30.05,NNE,22,5.8,5.8,72,0.00,,BKN039,0.04,VWS V14.01,2013-05-23 19:50:00,
2013-05-23 14:51:00,58.4,49.4,30.05,NNE,22,5.8,5.8,72,0.00,,BKN039,0.04,VWS V14.01,2013-05-23 19:51:00,
2013-05-23 14:52:00,58.4,49.4,30.05,NNE,22,5.8,5.8,72,0.00,,BKN039,0.04,VWS V14.01,2013-05-23 19:52:00,
2013-05-23 14:56:00,58.4,49.4,30.05,NNE,22,5.8,5.8,72,0.00,,BKN039,0.04,VWS V14.01,2013-05-23 19:56:00,
2013-05-23 14:57:00,58.4,49.4,30.05,NNE,22,5.8,5.8,72,0.00,,BKN039,0.04,VWS V14.01,2013-05-23 19:57:00,
2013-05-23 14:59:00,58.4,49.4,30.05,NNE,22,5.8,5.8,72,0.00,,BKN039,0.04,VWS V14.01,2013-05-23 19:59:00,
2013-05-23 15:00:00,58.4,49.4,30.05,NNE,22,5.8,5.8,72,0.00,,BKN039,0.04,VWS V14.01,2013-05-23 20:00:00,
2013-05-23 15:02:00,58.4,49.4,30.05,NNE,22,5.8,5.8,72,0.00,,BKN039,0.04,VWS V14.01,2013-05-23 20:02:00,
2013-05-23 15:04:00,58.4,49.4,30.05,NNE,22,5.8,5.8,72,0.00,,BKN039,0.04,VWS V14.01,2013-05-23 20:04:00,
2013-05-23 15:05:00,58.4,49.4,30.05,NNE,22,5.8,5.8,72,0.00,,BKN039,0.04,VWS V14.01,2013-05-23 20:05:00,
2013-05-23 15:06:00,58.4,49.4,30.05,NNE,22,5.8,5.8,72,0.00,,BKN039,0.04,VWS V14.01,2013-05-23 20:06:00,
2013-05-23 15:08:00,58.4,49.4,30.05,NNE,22,5.8,5.8,72,0.00,,BKN039,0.04,VWS V14.01,2013-05-23 20:08:00,
2013-05-23 15:10:00,58.4,49.4,30.05,NNE,22,5.8,5.8,72,0.00,,BKN039,0.04,VWS V14.01,2013-05-23 20:10:00,
2013-05-23 15:11:00,58.4,49.4,30.05,NNE,22,5.8,5.8,72,0.00,,BKN039,0.04,VWS V14.01,2013-05-23 20:11:00,
2013-05-23 15:12:00,58.4,49.4,30.05,NNE,22,5.8,5.8,72,0.00,,BKN039,0.04,VWS V14.01,2013-05-23 20:12:00,
2013-05-23 15:13:00,58.4,49.4,30.05,NNE,22,5.8,5.8,72,0.00,,BKN039,0.04,VWS V14.01,2013-05-23 20:13:00,
2013-05-23 15:14:00,58.4,49.4,30.05,NNE,22,5.8,5.8,72,0.00,,BKN039,0.04,VWS V14.01,2013-05-23 20:14:00,
2013-05-23 15:18:00,58.4,49.4,30.05,NNE,22,5.8,5.8,72,0.00,,BKN039,0.04,VWS V14.01,2013-05-23 20:18:00,
2013-05-23 15:20:00,58.4,49.4,30.05,NNE,22,5.8,5.8,72,0.00,,BKN039,0.04,VWS V14.01,2013-05-23 20:20:00,
2013-05-23 15:21:00,58.4,49.4,30.05,NNE,22,5.8,5.8,72,0.00,,BKN039,0.04,VWS V14.01,2013-05-23 20:21:00,
2013-05-23 15:23:00,58.4,49.4,30.05,NNE,22,5.8,5.8,72,0.00,,BKN039,0.04,VWS V14.01,2013-05-23 20:23:00,
2013-05-23 15:25:00,58.4,49.4,30.05,NNE,22,5.8,5.8,72,0.00,,BKN039,0.04,VWS V14.01,2013-05-23 20:25:00,
2013-05-23 15:26:00,58.4,49.4,30.05,NNE,22,5.8,5.8,72,0.00,,BKN039,0.04,VWS V14.01,2013-05-23 20:26:00,
2013-05-23 15:27:00,58.4,49.4,30.05,NNE,22,5.8,5.8,72,0.00,,BKN039,0.04,VWS V14.01,2013-05-23 20:27:00,
2013-05-23 15:30:00,58.4,49.4,30.05,NNE,22,5.8,5.8,72,0.00,,BKN039,0.04,VWS V14.01,2013-05-23 20:30:00,
2013-05-23 15:31:00,58.4,49.4,30.05,NNE,22,5.8,5.8,72,0.00,,BKN039,0.04,VWS V14.01,2013-05-23 20:31:00,
2013-05-23 15:32:00,58.4,49.4,30.05,NNE,22,5.8,5.8,72,0.00,,BKN039,0.04,VWS V14.01,2013-05-23 20:32:00,
2013-05-23 15:34:00,58.4,49.4,30.05,NNE,22,5.8,5.8,72,0.00,,BKN039,0.04,VWS V14.01,2013-05-23 20:34:00,
2013-05-23 15:37:00,58.4,49.4,30.05,NNE,22,5.8,5.8,72,0.00,,BKN039,0.04,VWS V14.01,2013-05-23 20:37:00,
2013-05-23 15:38:00,58.4,49.4,30.05,NNE,22,5.8,5.8,72,0.00,,BKN039,0.04,VWS V14.01,2013-05-23 20:38:00,
2013-05-23 15:39:00,58.4,49.4,30.05,NNE,22,5.8,5.8,72,0.00,,BKN039,0.04,VWS V14.01,2013-05-23 20:39:00,
2013-05-23 15:40:00,58.4,49.4,30.05,NNE,22,5.8,5.8,72,0.00,,BKN039,0.04,VWS V14.01,2013-05-23 20:40:00,
2013-05-23 15:42:00,58.4,49.4,30.05,NNE,22,5.8,5.8,72,0.00,,BKN039,0.04,VWS V14.01,2013-05-23 20:42:00,
2013-05-23 15:43:00,58.4,49.4,30.05,NNE,22,5.8,5.8,72,0.00,,BKN039,0.04,VWS V14.01,2013-05-23 20:43:00,
2013-05-23 15:44:00,58.4,49.4,30.05,NNE,22,5.8,5.8,72,0.00,,BKN039,0.04,VWS V14.01,2013-05-23 20:44:00,
2013-05-23 15:46:00,58.4,49.4,30.05,NNE,22,5.8,5.8,72,0.00,,BKN039,0.04,VWS V14.01,2013-05-23 20:46:00,
2013-05-23 15:48:00,58.4,49.4,30.05,NNE,22,5.8,5.8,72,0.00,,BKN039,0.04,VWS V14.01,2013-05-23 20:48:00,
2013-05-23 15:50:00,58.4,49.4,30.05,NNE,22,5.8,5.8,72,0.00,,BKN039,0.04,VWS V14.01,2013-05-23 20:50:00,
2013-05-23 15:51:00,58.4,49.4,30.05,NNE,22,5.8,5.8,72,0.00,,BKN039,0.04,VWS V14.01,2013-05-23 20:51:00,
2013-05-23 15:54:00,58.4,49.4,30.05,NNE,22,5.8,5.8,72,0.00,,BKN039,0.04,VWS V14.01,2013-05-23 20:54:00,
2013-05-23 15:56:00,58.4,49.4,30.05,NNE,22,5.8,5.8,72,0.00,,BKN039,0.04,VWS V14.01,2013-05-23 20:56:00,
2013-05-23 15:57:00,58.4,49.4,30.05,NNE,22,5.8,5.8,72,0.00,,BKN039,0.04,VWS V14.01,2013-05-23 20:57:00,
2013-05-23 16:00:00,58.4,49.4,30.05,NNE,22,5.8,5.8,72,0.00,,BKN039,0.04,VWS V14.01,2013-05-23 21:00:00,
2013-05-23 16:01:00,58.4,49.4,30.05,NNE,22,5.8,5.8,72,0.00,,BKN047,0.04,VWS V14.01,2013-05-23 21:01:00,
2013-05-23 16:02:00,58.4,49.4,30.05,NNE,22,5.8,5.8,72,0.00,,BKN047,0.04,VWS V14.01,2013-05-23 21:02:00,
2013-05-23 16:05:00,58.4,49.4,30.05,NNE,22,5.8,5.8,72,0.00,,BKN047,0.04,VWS V14.01,2013-05-23 21:05:00,
2013-05-23 16:06:00,58.4,49.4,30.05,NNE,22,5.8,5.8,72,0.00,,BKN047,0.04,VWS V14.01,2013-05-23 21:06:00,
2013-05-23 16:07:00,58.4,49.4,30.05,NNE,22,5.8,5.8,72,0.00,,BKN047,0.04,VWS V14.01,2013-05-23 21:07:00,
2013-05-23 16:11:00,58.4,49.4,30.05,NNE,22,5.8,5.8,72,0.00,,BKN047,0.04,VWS V14.01,2013-05-23 21:11:00,
2013-05-23 16:12:00,58.4,49.4,30.05,NNE,22,5.8,5.8,72,0.00,,BKN047,0.04,VWS V14.01,2013-05-23 21:12:00,
2013-05-23 16:14:00,58.4,49.4,30.05,NNE,22,5.8,5.8,72,0.00,,BKN047,0.04,VWS V14.01,2013-05-23 21:14:00,
2013-05-23 16:15:00,58.4,49.4,30.05,NNE,22,5.8,5.8,72,0.00,,BKN047,0.04,VWS V14.01,2013-05-23 21:15:00,
2013-05-23 16:17:00,58.4,49.4,30.05,NNE,22,5.8,5.8,72,0.00,,BKN047,0.04,VWS V14.01,2013-05-23 21:17:00,
2013-05-23 16:18:00,58.4,49.4,30.05,NNE,22,5.8,5.8,72,0.00,,BKN047,0.04,VWS V14.01,2013-05-23 21:18:00,
2013-05-23 16:19:00,58.4,49.4,30.05,NNE,22,5.8,5.8,72,0.00,,BKN047,0.04,VWS V14.01,2013-05-23 21:19:00,
2013-05-23 16:22:00,58.4,49.4,30.05,NNE,22,5.8,5.8,72,0.00,,BKN047,0.04,VWS V14.01,2013-05-23 21:22:00,
2013-05-23 16:23:00,58.4,49.4,30.05,NNE,22,5.8,5.8,72,0.00,,BKN047,0.04,VWS V14.01,2013-05-23 21:23:00,
2013-05-23 16:24:00,58.4,49.4,30.05,NNE,22,5.8,5.8,72,0.00,,BKN047,0.04,VWS V14.01,2013-05-23 21:24:00,
2013-05-23 16:28:00,58.4,49.4,30.05,NNE,22,5.8,5.8,72,0.00,,BKN047,0.04,VWS V14.01,2013-05-23 21:28:00,
2013-05-23 16:29:00,58.4,49.4,30.05,NNE,22,5.8,5.8,72,0.00,,BKN047,0.04,VWS V14.01,2013-05-23 21:29:00,
2013-05-23 16:30:00,58.4,49.4,30.05,NNE,22,5.8,5.8,72,0.00,,BKN047,0.04,VWS V14.01,2013-05-23 21:30:00,
2013-05-23 16:31:00,58.4,49.4,30.05,NNE,22,5.8,5.8,72,0.00,,BKN047,0.04,VWS V14.01,2013-05-23 21:31:00,
2013-05-23 16:35:00,58.4,49.4,30.05,NNE,22,5.8,5.8,72,0.00,,BKN047,0.04,VWS V14.01,2013-05-23 21:35:00,
2013-05-23 16:36:00,58.4,49.4,30.05,NNE,22,5.8,5.8,72,0.00,,BKN047,0.04,VWS V14.01,2013-05-23 21:36:00,
2013-05-23 16:37:00,58.4,49.4,30.05,NNE,22,5.8,5.8,72,0.00,,BKN047,0.04,VWS V14.01,2013-05-23 21:37:00,
2013-05-23 16:38:00,58.4,49.4,30.05,NNE,22,5.8,5.8,72,0.00,,BKN047,0.04,VWS V14.01,2013-05-23 21:38:00,
2013-05-23 16:41:00,58.4,49.4,30.05,NNE,22,5.8,5.8,72,0.00,,BKN047,0.04,VWS V14.01,2013-05-23 21:41:00,
2013-05-23 16:42:00,58.4,49.4,30.05,NNE,22,5.8,5.8,72,0.00,,BKN047,0.04,VWS V14.01,2013-05-23 21:42:00,
2013-05-23 16:43:00,58.4,49.4,30.05,NNE,22,5.8,5.8,72,0.00,,BKN047,0.04,VWS V14.01,2013-05-23 21:43:00,
2013-05-23 16:44:00,58.4,49.4,30.05,NNE,22,5.8,5.8,72,0.00,,BKN047,0.04,VWS V14.01,2013-05-23 21:44:00,
2013-05-23 16:47:00,58.4,49.4,30.05,NNE,22,5.8,5.8,72,0.00,,BKN047,0.04,VWS V14.01,2013-05-23 21:47:00,
2013-05-23 16:48:00,58.4,49.4,30.05,NNE,22,5.8,5.8,72,0.00,,BKN047,0.04,VWS V14.01,2013-05-23 21:48:00,
2013-05-23 16:49:00,58.4,49.4,30.05,NNE,22,5.8,5.8,72,0.00,,BKN047,0.04,VWS V14.01,2013-05-23 21:49:00,
2013-05-23 16:52:00,58.4,49.4,30.05,NNE,22,5.8,5.8,72,0.00,,BKN047,0.04,VWS V14.01,2013-05-23 21:52:00,
2013-05-23 16:53:00,58.4,49.4,30.05,NNE,22,5.8,5.8,72,0.00,,BKN047,0.04,VWS V14.01,2013-05-23 21:53:00,
2013-05-23 16:54:00,58.4,49.4,30.05,NNE,22,5.8,5.8,72,0.00,,BKN047,0.04,VWS V14.01,2013-05-23 21:54:00,
2013-05-23 16:57:00,58.4,49.4,30.05,NNE,22,5.8,5.8,72,0.00,,BKN047,0.04,VWS V14.01,2013-05-23 21:57:00,
2013-05-23 16:58:00,58.4,49.4,30.05,NNE,22,5.8,5.8,72,0.00,,BKN047,0.04,VWS V14.01,2013-05-23 21:58:00,
2013-05-23 16:59:00,58.4,49.4,30.05,NNE,22,5.8,5.8,72,0.00,,BKN047,0.04,VWS V14.01,2013-05-23 21:59:00,
2013-05-23 17:00:00,58.4,49.4,30.05,NNE,22,5.8,5.8,72,0.00,,BKN047,0.04,VWS V14.01,2013-05-23 22:00:00,
2013-05-23 17:02:00,58.4,49.4,30.05,NNE,22,5.8,5.8,72,0.00,,BKN047,0.04,VWS V14.01,2013-05-23 22:02:00,
2013-05-23 17:04:00,58.4,49.4,30.05,NNE,22,5.8,5.8,72,0.00,,BKN047,0.04,VWS V14.01,2013-05-23 22:04:00,
2013-05-23 17:08:00,58.4,49.4,30.05,NNE,22,5.8,5.8,72,0.00,,BKN047,0.04,VWS V14.01,2013-05-23 22:08:00,
2013-05-23 17:09:00,58.4,49.4,30.05,NNE,22,5.8,5.8,72,0.00,,BKN047,0.04,VWS V14.01,2013-05-23 22:09:00,
2013-05-23 17:10:00,58.4,49.4,30.05,NNE,22,5.8,5.8,72,0.00,,BKN047,0.04,VWS V14.01,2013-05-23 22:10:00,
2013-05-23 17:14:00,58.4,49.4,30.05,NNE,22,5.8,5.8,72,0.00,,BKN047,0.04,VWS V14.01,2013-05-23 22:14:00,
2013-05-23 17:15:00,58.4,49.4,30.05,NNE,22,5.8,5.8,72,0.00,,BKN047,0.04,VWS V14.01,2013-05-23 22:15:00,
2013-05-23 17:16:00,58.4,49.4,30.05,NNE,22,5.8,5.8,72,0.00,,BKN047,0.04,VWS V14.01,2013-05-23 22:16:00,
2013-05-23 17:18:00,58.4,49.4,30.05,NNE,22,5.8,5.8,72,0.00,,BKN047,0.04,VWS V14.01,2013-05-23 22:18:00,
2013-05-23 17:20:00,58.4,49.4,30.05,NNE,22,5.8,5.8,72,0.00,,BKN047,0.04,VWS V14.01,2013-05-23 22:20:00,
2013-05-23 17:21:00,58.4,49.4,30.05,NNE,22,5.8,5.8,72,0.00,,BKN047,0.04,VWS V14.01,2013-05-23 22:21:00,
2013-05-23 17:22:00,58.4,49.4,30.05,NNE,22,5.8,5.8,72,0.00,,BKN047,0.04,VWS V14.01,2013-05-23 22:22:00,
2013-05-23 17:26:00,58.4,49.4,30.05,NNE,22,5.8,5.8,72,0.00,,BKN047,0.04,VWS V14.01,2013-05-23 22:26:00,
2013-05-23 17:27:00,58.4,49.4,30.05,NNE,22,5.8,5.8,72,0.00,,BKN047,0.04,VWS V14.01,2013-05-23 22:27:00,
2013-05-23 17:28:00,58.4,49.4,30.05,NNE,22,5.8,5.8,72,0.00,,BKN047,0.04,VWS V14.01,2013-05-23 22:28:00,
2013-05-23 17:30:00,58.4,49.4,30.05,NNE,22,5.8,5.8,72,0.00,,BKN047,0.04,VWS V14.01,2013-05-23 22:30:00,
2013-05-23 17:31:00,58.4,49.4,30.05,NNE,22,5.8,5.8,72,0.00,,BKN047,0.04,VWS V14.01,2013-05-23 22:31:00,
2013-05-23 17:32:00,58.4,49.4,30.05,NNE,22,5.8,5.8,72,0.00,,BKN047,0.04,VWS V14.01,2013-05-23 22:32:00,
2013-05-23 17:34:00,58.4,49.4,30.05,NNE,22,5.8,5.8,72,0.00,,BKN047,0.04,VWS V14.01,2013-05-23 22:34:00,
2013-05-23 17:35:00,58.4,49.4,30.05,NNE,22,5.8,5.8,72,0.00,,BKN047,0.04,VWS V14.01,2013-05-23 22:35:00,
2013-05-23 17:36:00,58.4,49.4,30.05,NNE,22,5.8,5.8,72,0.00,,BKN047,0.04,VWS V14.01,2013-05-23 22:36:00,
2013-05-23 17:38:00,58.4,49.4,30.05,NNE,22,5.8,5.8,72,0.00,,BKN047,0.04,VWS V14.01,2013-05-23 22:38:00,
2013-05-23 17:39:00,58.4,49.4,30.05,NNE,22,5.8,5.8,72,0.00,,BKN047,0.04,VWS V14.01,2013-05-23 22:39:00,
2013-05-23 17:41:00,58.4,49.4,30.05,NNE,22,5.8,5.8,72,0.00,,BKN047,0.04,VWS V14.01,2013-05-23 22:41:00,
2013-05-23 17:42:00,58.4,49.4,30.05,NNE,22,5.8,5.8,72,0.00,,BKN047,0.04,VWS V14.01,2013-05-23 22:42:00,
2013-05-23 17:44:00,58.4,49.4,30.05,NNE,22,5.8,5.8,72,0.00,,BKN047,0.04,VWS V14.01,2013-05-23 22:44:00,
2013-05-23 17:45:00,58.4,49.4,30.05,NNE,22,5.8,5.8,72,0.00,,BKN047,0.04,VWS V14.01,2013-05-23 22:45:00,
2013-05-23 17:48:00,58.4,49.4,30.05,NNE,22,5.8,5.8,72,0.00,,BKN047,0.04,VWS V14.01,2013-05-23 22:48:00,
2013-05-23 17:50:00,58.4,49.4,30.05,NNE,22,5.8,5.8,72,0.00,,BKN047,0.04,VWS V14.01,2013-05-23 22:50:00,
2013-05-23 17:53:00,58.4,49.4,30.05,NNE,22,5.8,5.8,72,0.00,,BKN047,0.04,VWS V14.01,2013-05-23 22:53:00,
2013-05-23 17:54:00,58.4,49.4,30.05,NNE,22,5.8,5.8,72,0.00,,BKN047,0.04,VWS V14.01,2013-05-23 22:54:00,
2013-05-23 17:55:00,58.4,49.4,30.05,NNE,22,5.8,5.8,72,0.00,,BKN047,0.04,VWS V14.01,2013-05-23 22:55:00,
2013-05-23 17:56:00,58.4,49.4,30.05,NNE,22,5.8,5.8,72,0.00,,BKN047,0.04,VWS V14.01,2013-05-23 22:56:00,
2013-05-23 17:57:00,58.4,49.4,30.05,NNE,22,5.8,5.8,72,0.00,,BKN047,0.04,VWS V14.01,2013-05-23 22:57:00,
2013-05-23 18:00:00,58.4,49.4,30.05,NNE,22,5.8,5.8,72,0.00,,BKN047,0.04,VWS V14.01,2013-05-23 23:00:00,
2013-05-23 18:01:00,58.4,49.4,30.05,NNE,22,5.8,5.8,72,0.00,,SCT049,0.04,VWS V14.01,2013-05-23 23:01:00,
2013-05-23 18:02:00,58.4,49.4,30.05,NNE,22,5.8,5.8,72,0.00,,SCT049,0.04,VWS V14.01,2013-05-23 23:02:00,
2013-05-23 18:04:00,58.4,49.4,30.05,NNE,22,5.8,5.8,72,0.00,,SCT049,0.04,VWS V14.01,2013-05-23 23:04:00,
2013-05-23 18:05:00,58.4,49.4,30.05,NNE,22,5.8,5.8,72,0.00,,SCT049,0.04,VWS V14.01,2013-05-23 23:05:00,
2013-05-23 18:07:00,58.4,49.4,30.05,NNE,22,5.8,5.8,72,0.00,,SCT049,0.04,VWS V14.01,2013-05-23 23:07:00,
2013-05-23 18:08:00,58.4,49.4,30.05,NNE,22,5.8,5.8,72,0.00,,SCT049,0.04,VWS V14.01,2013-05-23 23:08:00,
2013-05-23 18:10:00,58.4,49.4,30.05,NNE,22,5.8,5.8,72,0.00,,SCT049,0.04,VWS V14.01,2013-05-23 23:10:00,
2013-05-23 18:13:00,58.4,49.4,30.05,NNE,22,5.8,5.8,72,0.00,,SCT049,0.04,VWS V14.01,2013-05-23 23:13:00,
2013-05-23 18:14:00,58.4,49.4,30.05,NNE,22,5.8,5.8,72,0.00,,SCT049,0.04,VWS V14.01,2013-05-23 23:14:00,
2013-05-23 18:15:00,58.4,49.4,30.05,NNE,22,5.8,5.8,72,0.00,,SCT049,0.04,VWS V14.01,2013-05-23 23:15:00,
2013-05-23 18:16:00,58.4,49.4,30.05,NNE,22,5.8,5.8,72,0.00,,SCT049,0.04,VWS V14.01,2013-05-23 23:16:00,
2013-05-23 18:18:00,58.4,49.4,30.05,NNE,22,5.8,5.8,72,0.00,,SCT049,0.04,VWS V14.01,2013-05-23 23:18:00,
2013-05-23 18:21:00,58.4,49.4,30.05,NNE,22,5.8,5.8,72,0.00,,SCT049,0.04,VWS V14.01,2013-05-23 23:21:00,
2013-05-23 18:22:00,58.4,49.4,30.05,NNE,22,5.8,5.8,72,0.00,,SCT049,0.04,VWS V14.01,2013-05-23 23:22:00,
2013-05-23 18:24:00,58.4,49.4,30.05,NNE,22,5.8,5.8,72,0.00,,SCT049,0.04,VWS V14.01,2013-05-23 23:24:00,
2013-05-23 18:26:00,58.4,49.4,30.05,NNE,22,5.8,5.8,72,0.00,,SCT049,0.04,VWS V14.01,2013-05-23 23:26:00,
2013-05-23 18:27:00,58.4,49.4,30.05,NNE,22,5.8,5.8,72,0.00,,SCT049,0.04,VWS V14.01,2013-05-23 23:27:00,
2013-05-23 18:30:00,58.4,49.4,30.05,NNE,22,5.8,5.8,72,0.00,,SCT049,0.04,VWS V14.01,2013-05-23 23:30:00,
2013-05-23 18:31:00,58.4,49.4,30.05,NNE,22,5.8,5.8,72,0.00,,SCT049,0.04,VWS V14.01,2013-05-23 23:31:00,
2013-05-23 18:32:00,58.4,49.4,30.05,NNE,22,5.8,5.8,72,0.00,,SCT049,0.04,VWS V14.01,2013-05-23 23:32:00,
2013-05-23 18:36:00,58.4,49.4,30.05,NNE,22,5.8,5.8,72,0.00,,SCT049,0.04,VWS V14.01,2013-05-23 23:36:00,
2013-05-23 18:37:00,58.4,49.4,30.05,NNE,22,5.8,5.8,72,0.00,,SCT049,0.04,VWS V14.01,2013-05-23 23:37:00,
2013-05-23 18:38:00,58.4,49.4,30.05,NNE,22,5.8,5.8,72,0.00,,SCT049,0.04,VWS V14.01,2013-05-23 23:38:00,
2013-05-23 18:40:00,58.4,49.4,30.05,NNE,22,5.8,5.8,72,0.00,,SCT049,0.04,VWS V14.01,2013-05-23 23:40:00,
2013-05-23 18:42:00,58.4,49.4,30.05,NNE,22,5.8,5.8,72,0.00,,SCT049,0.04,VWS V14.01,2013-05-23 23:42:00,
2013-05-23 18:45:00,58.4,49.4,30.05,NNE,22,5.8,5.8,72,0.00,,SCT049,0.04,VWS V14.01,2013-05-23 23:45:00,
2013-05-23 18:46:00,58.4,49.4,30.05,NNE,22,5.8,5.8,72,0.00,,SCT049,0.04,VWS V14.01,2013-05-23 23:46:00,
2013-05-23 18:48:00,58.4,49.4,30.05,NNE,22,5.8,5.8,72,0.00,,SCT049,0.04,VWS V14.01,2013-05-23 23:48:00,
2013-05-23 18:49:00,58.4,49.4,30.05,NNE,22,5.8,5.8,72,0.00,,SCT049,0.04,VWS V14.01,2013-05-23 23:49:00,
2013-05-23 18:51:00,58.4,49.4,30.05,NNE,22,5.8,5.8,72,0.00,,CLR,0.04,VWS V14.01,2013-05-23 23:51:00,
2013-05-23 18:52:00,58.4,49.4,30.05,NNE,22,5.8,5.8,72,0.00,,CLR,0.04,VWS V14.01,2013-05-23 23:52:00,
2013-05-23 18:54:00,58.4,49.4,30.05,NNE,22,5.8,5.8,72,0.00,,CLR,0.04,VWS V14.01,2013-05-23 23:54:00,
2013-05-23 18:56:00,58.4,49.4,30.05,NNE,22,5.8,5.8,72,0.00,,CLR,0.04,VWS V14.01,2013-05-23 23:56:00,
2013-05-23 18:58:00,58.4,49.4,30.05,NNE,22,5.8,5.8,72,0.00,,CLR,0.04,VWS V14.01,2013-05-23 23:58:00,
2013-05-23 18:59:00,58.4,49.4,30.05,NNE,22,5.8,5.8,72,0.00,,CLR,0.04,VWS V14.01,2013-05-23 23:59:00,
2013-05-23 19:01:00,58.4,49.4,30.05,NNE,22,5.8,5.8,72,0.00,,SCT049,0.04,VWS V14.01,2013-05-24 00:01:00,
2013-05-23 19:02:00,58.4,49.4,30.05,NNE,22,5.8,5.8,72,0.00,,SCT049,0.04,VWS V14.01,2013-05-24 00:02:00,
2013-05-23 19:03:00,58.4,49.4,30.05,NNE,22,5.8,5.8,72,0.00,,SCT049,0.04,VWS V14.01,2013-05-24 00:03:00,
2013-05-23 19:04:00,58.4,49.4,30.05,NNE,22,5.8,5.8,72,0.00,,SCT049,0.04,VWS V14.01,2013-05-24 00:04:00,
2013-05-23 19:06:00,58.4,49.4,30.05,NNE,22,5.8,5.8,72,0.00,,SCT049,0.04,VWS V14.01,2013-05-24 00:06:00,
2013-05-23 19:08:00,58.4,49.4,30.05,NNE,22,5.8,5.8,72,0.00,,SCT049,0.04,VWS V14.01,2013-05-24 00:08:00,
2013-05-23 19:09:00,58.4,49.4,30.05,NNE,22,5.8,5.8,72,0.00,,SCT049,0.04,VWS V14.01,2013-05-24 00:09:00,
2013-05-23 19:10:00,58.4,49.4,30.05,NNE,22,5.8,5.8,72,0.00,,CLR,0.04,VWS V14.01,2013-05-24 00:10:00,
2013-05-23 19:13:00,58.4,49.4,30.05,NNE,22,5.8,5.8,72,0.00,,CLR,0.04,VWS V14.01,2013-05-24 00:13:00,
2013-05-23 19:14:00,58.4,49.4,30.05,NNE,22,5.8,5.8,72,0.00,,CLR,0.04,VWS V14.01,2013-05-24 00:14:00,
2013-05-23 19:15:00,58.4,49.4,30.05,NNE,22,5.8,5.8,72,0.00,,CLR,0.04,VWS V14.01,2013-05-24 00:15:00,
2013-05-23 19:17:00,58.4,49.4,30.05,NNE,22,5.8,5.8,72,0.00,,CLR,0.04,VWS V14.01,2013-05-24 00:17:00,
2013-05-23 19:18:00,58.4,49.4,30.05,NNE,22,5.8,5.8,72,0.00,,CLR,0.04,VWS V14.01,2013-05-24 00:18:00,
2013-05-23 19:19:00,58.4,49.4,30.05,NNE,22,5.8,5.8,72,0.00,,CLR,0.04,VWS V14.01,2013-05-24 00:19:00,
2013-05-23 19:20:00,58.4,49.4,30.05,NNE,22,5.8,5.8,72,0.00,,CLR,0.04,VWS V14.01,2013-05-24 00:20:00,
2013-05-23 19:23:00,58.4,49.4,30.05,NNE,22,5.8,5.8,72,0.00,,CLR,0.04,VWS V14.01,2013-05-24 00:23:00,
2013-05-23 19:24:00,58.4,49.4,30.05,NNE,22,5.8,5.8,72,0.00,,CLR,0.04,VWS V14.01,2013-05-24 00:24:00,
2013-05-23 19:25:00,58.4,49.4,30.05,NNE,22,5.8,5.8,72,0.00,,CLR,0.04,VWS V14.01,2013-05-24 00:25:00,
2013-05-23 19:26:00,58.4,49.4,30.05,NNE,22,5.8,5.8,72,0.00,,CLR,0.04,VWS V14.01,2013-05-24 00:26:00,
2013-05-23 19:30:00,58.4,49.4,30.05,NNE,22,5.8,5.8,72,0.00,,CLR,0.04,VWS V14.01,2013-05-24 00:30:00,
2013-05-23 19:31:00,58.4,49.4,30.05,NNE,22,5.8,5.8,72,0.00,,CLR,0.04,VWS V14.01,2013-05-24 00:31:00,
2013-05-23 19:32:00,58.4,49.4,30.05,NNE,22,5.8,5.8,72,0.00,,CLR,0.04,VWS V14.01,2013-05-24 00:32:00,
2013-05-23 19:35:00,58.4,49.4,30.05,NNE,22,5.8,5.8,72,0.00,,CLR,0.04,VWS V14.01,2013-05-24 00:35:00,
2013-05-23 19:36:00,58.4,49.4,30.05,NNE,22,5.8,5.8,72,0.00,,CLR,0.04,VWS V14.01,2013-05-24 00:36:00,
2013-05-23 19:38:00,58.4,49.4,30.05,NNE,22,5.8,5.8,72,0.00,,CLR,0.04,VWS V14.01,2013-05-24 00:38:00,
2013-05-23 19:40:00,58.4,49.4,30.05,NNE,22,5.8,5.8,72,0.00,,CLR,0.04,VWS V14.01,2013-05-24 00:40:00,
2013-05-23 19:42:00,58.4,49.4,30.05,NNE,22,5.8,5.8,72,0.00,,CLR,0.04,VWS V14.01,2013-05-24 00:42:00,
2013-05-23 19:43:00,58.4,49.4,30.05,NNE,22,5.8,5.8,72,0.00,,CLR,0.04,VWS V14.01,2013-05-24 00:43:00,
2013-05-23 19:44:00,58.4,49.4,30.05,NNE,22,5.8,5.8,72,0.00,,CLR,0.04,VWS V14.01,2013-05-24 00:44:00,
2013-05-23 19:46:00,58.4,49.4,30.05,NNE,22,5.8,5.8,72,0.00,,CLR,0.04,VWS V14.01,2013-05-24 00:46:00,
2013-05-23 19:48:00,58.4,49.4,30.05,NNE,22,5.8,5.8,72,0.00,,CLR,0.04,VWS V14.01,2013-05-24 00:48:00,
2013-05-23 19:50:00,58.4,49.4,30.05,NNE,22,5.8,5.8,72,0.00,,CLR,0.04,VWS V14.01,2013-05-24 00:50:00,
2013-05-23 19:52:00,58.4,49.4,30.05,NNE,22,5.8,5.8,72,0.00,,CLR,0.04,VWS V14.01,2013-05-24 00:52:00,
2013-05-23 19:53:00,58.4,49.4,30.05,NNE,22,5.8,5.8,72,0.00,,CLR,0.04,VWS V14.01,2013-05-24 00:53:00,
2013-05-23 19:54:00,58.4,49.4,30.05,NNE,22,5.8,5.8,72,0.00,,CLR,0.04,VWS V14.01,2013-05-24 00:54:00,
2013-05-23 19:55:00,58.4,49.4,30.05,NNE,22,5.8,5.8,72,0.00,,CLR,0.04,VWS V14.01,2013-05-24 00:55:00,
2013-05-23 19:57:00,58.4,49.4,30.05,NNE,22,5.8,5.8,72,0.00,,CLR,0.04,VWS V14.01,2013-05-24 00:57:00,
2013-05-23 20:00:00,58.4,49.4,30.05,NNE,22,5.8,5.8,72,0.00,,CLR,0.04,VWS V14.01,2013-05-24 01:00:00,
2013-05-23 20:01:00,58.4,49.4,30.05,NNE,22,5.8,5.8,72,0.00,,CLR,0.04,VWS V14.01,2013-05-24 01:01:00,
2013-05-23 20:02:00,58.4,49.4,30.05,NNE,22,5.8,5.8,72,0.00,,CLR,0.04,VWS V14.01,2013-05-24 01:02:00,
2013-05-23 20:06:00,58.4,49.4,30.05,NNE,22,5.8,5.8,72,0.00,,CLR,0.04,VWS V14.01,2013-05-24 01:06:00,
2013-05-23 20:07:00,58.4,49.4,30.05,NNE,22,5.8,5.8,72,0.00,,CLR,0.04,VWS V14.01,2013-05-24 01:07:00,
2013-05-23 20:10:00,58.4,49.4,30.05,NNE,22,5.8,5.8,72,0.00,,CLR,0.04,VWS V14.01,2013-05-24 01:10:00,
2013-05-23 20:11:00,58.4,49.4,30.05,NNE,22,5.8,5.8,72,0.00,,CLR,0.04,VWS V14.01,2013-05-24 01:11:00,
2013-05-23 20:12:00,58.4,49.4,30.05,NNE,22,5.8,5.8,72,0.00,,CLR,0.04,VWS V14.01,2013-05-24 01:12:00,
2013-05-23 20:14:00,58.4,49.4,30.05,NNE,22,5.8,5.8,72,0.00,,CLR,0.04,VWS V14.01,2013-05-24 01:14:00,
2013-05-23 20:18:00,58.4,49.4,30.05,NNE,22,5.8,5.8,72,0.00,,CLR,0.04,VWS V14.01,2013-05-24 01:18:00,
2013-05-23 20:19:00,58.4,49.4,30.05,NNE,22,5.8,5.8,72,0.00,,CLR,0.04,VWS V14.01,2013-05-24 01:19:00,
2013-05-23 20:20:00,58.4,49.4,30.05,NNE,22,5.8,5.8,72,0.00,,CLR,0.04,VWS V14.01,2013-05-24 01:20:00,
2013-05-23 20:21:00,58.4,49.4,30.05,NNE,22,5.8,5.8,72,0.00,,CLR,0.04,VWS V14.01,2013-05-24 01:21:00,
2013-05-23 20:25:00,58.4,49.4,30.05,NNE,22,5.8,5.8,72,0.00,,CLR,0.04,VWS V14.01,2013-05-24 01:25:00,
2013-05-23 20:26:00,58.4,49.4,30.05,NNE,22,5.8,5.8,72,0.00,,CLR,0.04,VWS V14.01,2013-05-24 01:26:00,
2013-05-23 20:27:00,58.4,49.4,30.05,NNE,22,5.8,5.8,72,0.00,,CLR,0.04,VWS V14.01,2013-05-24 01:27:00,
2013-05-23 20:28:00,58.4,49.4,30.05,NNE,22,5.8,5.8,72,0.00,,CLR,0.04,VWS V14.01,2013-05-24 01:28:00,
2013-05-23 20:29:00,58.4,49.4,30.05,NNE,22,5.8,5.8,72,0.00,,CLR,0.04,VWS V14.01,2013-05-24 01:29:00,
2013-05-23 20:32:00,58.4,49.4,30.05,NNE,22,5.8,5.8,72,0.00,,CLR,0.04,VWS V14.01,2013-05-24 01:32:00,
2013-05-23 20:33:00,58.4,49.4,30.05,NNE,22,5.8,5.8,72,0.00,,CLR,0.04,VWS V14.01,2013-05-24 01:33:00,
2013-05-23 20:34:00,58.4,49.4,30.05,NNE,22,5.8,5.8,72,0.00,,CLR,0.04,VWS V14.01,2013-05-24 01:34:00,
2013-05-23 20:36:00,58.4,49.4,30.05,NNE,22,5.8,5.8,72,0.00,,CLR,0.04,VWS V14.01,2013-05-24 01:36:00,
2013-05-23 20:38:00,58.4,49.4,30.05,NNE,22,5.8,5.8,72,0.00,,CLR,0.04,VWS V14.01,2013-05-24 01:38:00,
2013-05-23 20:39:00,58.4,49.4,30.05,NNE,22,5.8,5.8,72,0.00,,CLR,0.04,VWS V14.01,2013-05-24 01:39:00,
2013-05-23 20:40:00,58.4,49.4,30.05,NNE,22,5.8,5.8,72,0.00,,CLR,0.04,VWS V14.01,2013-05-24 01:40:00,
2013-05-23 20:43:00,58.4,49.4,30.05,NNE,22,5.8,5.8,72,0.00,,CLR,0.04,VWS V14.01,2013-05-24 01:43:00,
2013-05-23 20:44:00,58.4,49.4,30.05,NNE,22,5.8,5.8,72,0.00,,CLR,0.04,VWS V14.01,2013-05-24 01:44:00,
2013-05-23 20:45:00,58.4,49.4,30.05,NNE,22,5.8,5.8,72,0.00,,CLR,0.04,VWS V14.01,2013-05-24 01:45:00,
2013-05-23 20:48:00,58.4,49.4,30.05,NNE,22,5.8,5.8,72,0.00,,CLR,0.04,VWS V14.01,2013-05-24 01:48:00,
2013-05-23 20:50:00,58.4,49.4,30.05,NNE,22,5.8,5.8,72,0.00,,CLR,0.04,VWS V14.01,2013-05-24 01:50:00,
2013-05-23 20:51:00,58.4,49.4,30.05,NNE,22,5.8,5.8,72,0.00,,CLR,0.04,VWS V14.01,2013-05-24 01:51:00,
2013-05-23 20:53:00,58.4,49.4,30.05,NNE,22,5.8,5.8,72,0.00,,CLR,0.04,VWS V14.01,2013-05-24 01:53:00,
2013-05-23 20:54:00,58.4,49.4,30.05,NNE,22,5.8,5.8,72,0.00,,CLR,0.04,VWS V14.01,2013-05-24 01:54:00,
2013-05-23 20:57:00,58.4,49.4,30.05,NNE,22,5.8,5.8,72,0.00,,CLR,0.04,VWS V14.01,2013-05-24 01:57:00,
2013-05-23 20:58:00,58.4,49.4,30.05,NNE,22,5.8,5.8,72,0.00,,CLR,0.04,VWS V14.01,2013-05-24 01:58:00,
2013-05-23 21:00:00,58.4,49.4,30.05,NNE,22,5.8,5.8,72,0.00,,CLR,0.04,VWS V14.01,2013-05-24 02:00:00,
2013-05-23 21:03:00,58.4,49.4,30.05,NNE,22,5.8,5.8,72,0.00,,CLR,0.04,VWS V14.01,2013-05-24 02:03:00,
2013-05-23 21:05:00,58.4,49.4,30.05,NNE,22,5.8,5.8,72,0.00,,CLR,0.04,VWS V14.01,2013-05-24 02:05:00,
2013-05-23 21:06:00,58.4,49.4,30.05,NNE,22,5.8,5.8,72,0.00,,CLR,0.04,VWS V14.01,2013-05-24 02:06:00,
2013-05-23 21:07:00,58.4,49.4,30.05,NNE,22,5.8,5.8,72,0.00,,CLR,0.04,VWS V14.01,2013-05-24 02:07:00,
2013-05-23 21:08:00,58.4,49.4,30.05,NNE,22,5.8,5.8,72,0.00,,CLR,0.04,VWS V14.01,2013-05-24 02:08:00,
2013-05-23 21:12:00,58.4,49.4,30.05,NNE,22,5.8,5.8,72,0.00,,CLR,0.04,VWS V14.01,2013-05-24 02:12:00,
2013-05-23 21:13:00,58.4,49.4,30.05,NNE,22,5.8,5.8,72,0.00,,CLR,0.04,VWS V14.01,2013-05-24 02:13:00,
2013-05-23 21:14:00,58.4,49.4,30.05,NNE,22,5.8,5.8,72,0.00,,CLR,0.04,VWS V14.01,2013-05-24 02:14:00,
2013-05-23 21:16:00,58.4,49.4,30.05,NNE,22,5.8,5.8,72,0.00,,CLR,0.04,VWS V14.01,2013-05-24 02:16:00,
2013-05-23 21:18:00,58.4,49.4,30.05,NNE,22,5.8,5.8,72,0.00,,CLR,0.04,VWS V14.01,2013-05-24 02:18:00,
2013-05-23 21:19:00,58.4,49.4,30.05,NNE,22,5.8,5.8,72,0.00,,CLR,0.04,VWS V14.01,2013-05-24 02:19:00,
2013-05-23 21:22:00,58.4,49.4,30.05,NNE,22,5.8,5.8,72,0.00,,CLR,0.04,VWS V14.01,2013-05-24 02:22:00,
2013-05-23 21:23:00,58.4,49.4,30.05,NNE,22,5.8,5.8,72,0.00,,CLR,0.04,VWS V14.01,2013-05-24 02:23:00,
2013-05-23 21:24:00,58.4,49.4,30.05,NNE,22,5.8,5.8,72,0.00,,CLR,0.04,VWS V14.01,2013-05-24 02:24:00,
2013-05-23 21:26:00,58.4,49.4,30.05,NNE,22,5.8,5.8,72,0.00,,CLR,0.04,VWS V14.01,2013-05-24 02:26:00,
2013-05-23 21:27:00,58.4,49.4,30.05,NNE,22,5.8,5.8,72,0.00,,CLR,0.04,VWS V14.01,2013-05-24 02:27:00,
2013-05-23 21:28:00,58.4,49.4,30.05,NNE,22,5.8,5.8,72,0.00,,CLR,0.04,VWS V14.01,2013-05-24 02:28:00,
2013-05-23 21:32:00,58.4,49.4,30.05,NNE,22,5.8,5.8,72,0.00,,CLR,0.04,VWS V14.01,2013-05-24 02:32:00,
2013-05-23 21:33:00,58.4,49.4,30.05,NNE,22,5.8,5.8,72,0.00,,CLR,0.04,VWS V14.01,2013-05-24 02:33:00,
2013-05-23 21:34:00,58.4,49.4,30.05,NNE,22,5.8,5.8,72,0.00,,CLR,0.04,VWS V14.01,2013-05-24 02:34:00,
2013-05-23 21:36:00,58.4,49.4,30.05,NNE,22,5.8,5.8,72,0.00,,CLR,0.04,VWS V14.01,2013-05-24 02:36:00,
2013-05-23 21:37:00,58.4,49.4,30.05,NNE,22,5.8,5.8,72,0.00,,CLR,0.04,VWS V14.01,2013-05-24 02:37:00,
2013-05-23 21:39:00,58.4,49.4,30.05,NNE,22,5.8,5.8,72,0.00,,CLR,0.04,VWS V14.01,2013-05-24 02:39:00,
2013-05-23 21:42:00,58.4,49.4,30.05,NNE,22,5.8,5.8,72,0.00,,CLR,0.04,VWS V14.01,2013-05-24 02:42:00,
2013-05-23 21:43:00,58.4,49.4,30.05,NNE,22,5.8,5.8,72,0.00,,CLR,0.04,VWS V14.01,2013-05-24 02:43:00,
2013-05-23 21:44:00,58.4,49.4,30.05,NNE,22,5.8,5.8,72,0.00,,CLR,0.04,VWS V14.01,2013-05-24 02:44:00,
2013-05-23 21:46:00,58.4,49.4,30.05,NNE,22,5.8,5.8,72,0.00,,CLR,0.04,VWS V14.01,2013-05-24 02:46:00,
2013-05-23 21:50:00,58.4,49.4,30.05,NNE,22,5.8,5.8,72,0.00,,CLR,0.04,VWS V14.01,2013-05-24 02:50:00,
2013-05-23 21:51:00,58.4,49.4,30.05,NNE,22,5.8,5.8,72,0.00,,CLR,0.04,VWS V14.01,2013-05-24 02:51:00,
2013-05-23 21:52:00,58.4,49.4,30.05,NNE,22,5.8,5.8,72,0.00,,CLR,0.04,VWS V14.01,2013-05-24 02:52:00,
2013-05-23 21:53:00,58.4,49.4,30.05,NNE,22,5.8,5.8,72,0.00,,CLR,0.04,VWS V14.01,2013-05-24 02:53:00,
2013-05-23 21:56:00,58.4,49.4,30.05,NNE,22,5.8,5.8,72,0.00,,CLR,0.04,VWS V14.01,2013-05-24 02:56:00,
2013-05-23 21:57:00,58.4,49.4,30.05,NNE,22,5.8,5.8,72,0.00,,CLR,0.04,VWS V14.01,2013-05-24 02:57:00,
2013-05-23 22:01:00,58.4,49.4,30.05,NNE,22,5.8,5.8,72,0.00,,CLR,0.04,VWS V14.01,2013-05-24 03:01:00,
2013-05-23 22:02:00,58.4,49.4,30.05,NNE,22,5.8,5.8,72,0.00,,CLR,0.04,VWS V14.01,2013-05-24 03:02:00,
2013-05-23 22:03:00,58.4,49.4,30.05,NNE,22,5.8,5.8,72,0.00,,CLR,0.04,VWS V14.01,2013-05-24 03:03:00,
2013-05-23 22:04:00,58.4,49.4,30.05,NNE,22,5.8,5.8,72,0.00,,CLR,0.04,VWS V14.01,2013-05-24 03:04:00,
2013-05-23 22:05:00,58.4,49.4,30.05,NNE,22,5.8,5.8,72,0.00,,CLR,0.04,VWS V14.01,2013-05-24 03:05:00,
2013-05-23 22:09:00,58.4,49.4,30.05,NNE,22,5.8,5.8,72,0.00,,CLR,0.04,VWS V14.01,2013-05-24 03:09:00,
2013-05-23 22:10:00,58.4,49.4,30.05,NNE,22,5.8,5.8,72,0.00,,CLR,0.04,VWS V14.01,2013-05-24 03:10:00,
2013-05-23 22:13:00,58.4,49.4,30.05,NNE,22,5.8,5.8,72,0.00,,CLR,0.04,VWS V14.01,2013-05-24 03:13:00,
2013-05-23 22:14:00,58.4,49.4,30.05,NNE,22,5.8,5.8,72,0.00,,CLR,0.04,VWS V14.01,2013-05-24 03:14:00,
2013-05-23 22:15:00,58.4,49.4,30.05,NNE,22,5.8,5.8,72,0.00,,CLR,0.04,VWS V14.01,2013-05-24 03:15:00,
2013-05-23 22:16:00,58.4,49.4,30.05,NNE,22,5.8,5.8,72,0.00,,CLR,0.04,VWS V14.01,2013-05-24 03:16:00,
2013-05-23 22:18:00,58.4,49.4,30.05,NNE,22,5.8,5.8,72,0.00,,CLR,0.04,VWS V14.01,2013-05-24 03:18:00,
2013-05-23 22:19:00,58.4,49.4,30.05,NNE,22,5.8,5.8,72,0.00,,CLR,0.04,VWS V14.01,2013-05-24 03:19:00,
2013-05-23 22:20:00,58.4,49.4,30.05,NNE,22,5.8,5.8,72,0.00,,CLR,0.04,VWS V14.01,2013-05-24 03:20:00,
2013-05-23 22:22:00,58.4,49.4,30.05,NNE,22,5.8,5.8,72,0.00,,CLR,0.04,VWS V14.01,2013-05-24 03:22:00,
2013-05-23 22:24:00,58.4,49.4,30.05,NNE,22,5.8,5.8,72,0.00,,CLR,0.04,VWS V14.01,2013-05-24 03:24:00,
2013-05-23 22:25:00,58.4,49.4,30.05,NNE,22,5.8,5.8,72,0.00,,CLR,0.04,VWS V14.01,2013-05-24 03:25:00,
2013-05-23 22:26:00,58.4,49.4,30.05,NNE,22,5.8,5.8,72,0.00,,CLR,0.04,VWS V14.01,2013-05-24 03:26:00,
2013-05-23 22:27:00,58.4,49.4,30.05,NNE,22,5.8,5.8,72,0.00,,CLR,0.04,VWS V14.01,2013-05-24 03:27:00,
2013-05-23 22:30:00,58.4,49.4,30.05,NNE,22,5.8,5.8,72,0.00,,CLR,0.04,VWS V14.01,2013-05-24 03:30:00,
2013-05-23 22:33:00,58.4,49.4,30.05,NNE,22,5.8,5.8,72,0.00,,CLR,0.04,VWS V14.01,2013-05-24 03:33:00,
2013-05-23 22:34:00,58.4,49.4,30.05,NNE,22,5.8,5.8,72,0.00,,CLR,0.04,VWS V14.01,2013-05-24 03:34:00,
2013-05-23 22:36:00,58.4,49.4,30.05,NNE,22,5.8,5.8,72,0.00,,CLR,0.04,VWS V14.01,2013-05-24 03:36:00,
2013-05-23 22:37:00,58.4,49.4,30.05,NNE,22,5.8,5.8,72,0.00,,CLR,0.04,VWS V14.01,2013-05-24 03:37:00,
2013-05-23 22:39:00,58.4,49.4,30.05,NNE,22,5.8,5.8,72,0.00,,CLR,0.04,VWS V14.01,2013-05-24 03:39:00,
2013-05-23 22:40:00,58.4,49.4,30.05,NNE,22,5.8,5.8,72,0.00,,CLR,0.04,VWS V14.01,2013-05-24 03:40:00,
2013-05-23 22:43:00,58.4,49.4,30.05,NNE,22,5.8,5.8,72,0.00,,CLR,0.04,VWS V14.01,2013-05-24 03:43:00,
2013-05-23 22:45:00,58.4,49.4,30.05,NNE,22,5.8,5.8,72,0.00,,CLR,0.04,VWS V14.01,2013-05-24 03:45:00,
2013-05-23 22:46:00,58.4,49.4,30.05,NNE,22,5.8,5.8,72,0.00,,CLR,0.04,VWS V14.01,2013-05-24 03:46:00,
2013-05-23 22:47:00,58.4,49.4,30.05,NNE,22,5.8,5.8,72,0.00,,CLR,0.04,VWS V14.01,2013-05-24 03:47:00,
2013-05-23 22:48:00,58.4,49.4,30.05,NNE,22,5.8,5.8,72,0.00,,CLR,0.04,VWS V14.01,2013-05-24 03:48:00,
2013-05-23 22:50:00,58.4,49.4,30.05,NNE,22,5.8,5.8,72,0.00,,CLR,0.04,VWS V14.01,2013-05-24 03:50:00,
2013-05-23 22:53:00,58.4,49.4,30.05,NNE,22,5.8,5.8,72,0.00,,CLR,0.04,VWS V14.01,2013-05-24 03:53:00,
2013-05-23 22:55:00,58.4,49.4,30.05,NNE,22,5.8,5.8,72,0.00,,CLR,0.04,VWS V14.01,2013-05-24 03:55:00,
2013-05-23 22:56:00,58.4,49.4,30.05,NNE,22,5.8,5.8,72,0.00,,CLR,0.04,VWS V14.01,2013-05-24 03:56:00,
2013-05-23 22:58:00,58.4,49.4,30.05,NNE,22,5.8,5.8,72,0.00,,CLR,0.04,VWS V14.01,2013-05-24 03:58:00,
2013-05-23 23:00:00,58.4,49.4,30.05,NNE,22,5.8,5.8,72,0.00,,CLR,0.04,VWS V14.01,2013-05-24 04:00:00,
2013-05-23 23:01:00,58.4,49.4,30.05,NNE,22,5.8,5.8,72,0.00,,CLR,0.04,VWS V14.01,2013-05-24 04:01:00,
2013-05-23 23:02:00,58.4,49.4,30.05,NNE,22,5.8,5.8,72,0.00,,CLR,0.04,VWS V14.01,2013-05-24 04:02:00,
2013-05-23 23:03:00,58.4,49.4,30.05,NNE,22,5.8,5.8,72,0.00,,CLR,0.04,VWS V14.01,2013-05-24 04:03:00,
2013-05-23 23:06:00,58.4,49.4,30.05,NNE,22,5.8,5.8,72,0.00,,CLR,0.04,VWS V14.01,2013-05-24 04:06:00,
2013-05-23 23:08:00,58.4,49.4,30.05,NNE,22,5.8,5.8,72,0.00,,CLR,0.04,VWS V14.01,2013-05-24 04:08:00,
2013-05-23 23:09:00,58.4,49.4,30.05,NNE,22,5.8,5.8,72,0.00,,CLR,0.04,VWS V14.01,2013-05-24 04:09:00,
2013-05-23 23:10:00,58.4,49.4,30.05,NNE,22,5.8,5.8,72,0.00,,CLR,0.04,VWS V14.01,2013-05-24 04:10:00,
2013-05-23 23:13:00,58.4,49.4,30.05,NNE,22,5.8,5.8,72,0.00,,CLR,0.04,VWS V14.01,2013-05-24 04:13:00,
2013-05-23 23:14:00,58.4,49.4,30.05,NNE,22,5.8,5.8,72,0.00,,CLR,0.04,VWS V14.01,2013-05-24 04:14:00,
2013-05-23 23:16:00,58.4,49.4,30.05,NNE,22,5.8,5.8,72,0.00,,CLR,0.04,VWS V14.01,2013-05-24 04:16:00,
2013-05-23 23:17:00,58.4,49.4,30.05,NNE,22,5.8,5.8,72,0.00,,CLR,0.04,VWS V14.01,2013-05-24 04:17:00,
2013-05-23 23:18:00,58.4,49.4,30.05,NNE,22,5.8,5.8,72,0.00,,CLR,0.04,VWS V14.01,2013-05-24 04:18:00,
2013-05-23 23:20:00,58.4,49.4,30.05,NNE,22,5.8,5.8,72,0.00,,CLR,0.04,VWS V14.01,2013-05-24 04:20:00,
2013-05-23 23:22:00,58.4,49.4,30.05,NNE,22,5.8,5.8,72,0.00,,CLR,0.04,VWS V14.01,2013-05-24 04:22:00,
2013-05-23 23:23:00,58.4,49.4,30.05,NNE,22,5.8,5.8,72,0.00,,CLR,0.04,VWS V14.01,2013-05-24 04:23:00,
2013-05-23 23:25:00,58.4,49.4,30.05,NNE,22,5.8,5.8,72,0.00,,CLR,0.04,VWS V14.01,2013-05-24 04:25:00,
2013-05-23 23:27:00,58.4,49.4,30.05,NNE,22,5.8,5.8,72,0.00,,CLR,0.04,VWS V14.01,2013-05-24 04:27:00,
2013-05-23 23:28:00,58.4,49.4,30.05,NNE,22,5.8,5.8,72,0.00,,CLR,0.04,VWS V14.01,2013-05-24 04:28:00,
2013-05-23 23:30:00,58.4,49.4,30.05,NNE,22,5.8,5.8,72,0.00,,CLR,0.04,VWS V14.01,2013-05-24 04:30:00,
2013-05-23 23:33:00,58.4,49.4,30.05,NNE,22,5.8,5.8,72,0.00,,CLR,0.04,VWS V14.01,2013-05-24 04:33:00,
2013-05-23 23:34:00,58.4,49.4,30.05,NNE,22,5.8,5.8,72,0.00,,CLR,0.04,VWS V14.01,2013-05-24 04:34:00,
2013-05-23 23:36:00,58.4,49.4,30.05,NNE,22,5.8,5.8,72,0.00,,CLR,0.04,VWS V14.01,2013-05-24 04:36:00,
2013-05-23 23:38:00,58.4,49.4,30.05,NNE,22,5.8,5.8,72,0.00,,CLR,0.04,VWS V14.01,2013-05-24 04:38:00,
2013-05-23 23:40:00,58.4,49.4,30.05,NNE,22,5.8,5.8,72,0.00,,CLR,0.04,VWS V14.01,2013-05-24 04:40:00,
2013-05-23 23:41:00,58.4,49.4,30.05,NNE,22,5.8,5.8,72,0.00,,CLR,0.04,VWS V14.01,2013-05-24 04:41:00,
2013-05-23 23:42:00,58.4,49.4,30.05,NNE,22,5.8,5.8,72,0.00,,CLR,0.04,VWS V14.01,2013-05-24 04:42:00,
2013-05-23 23:44:00,58.4,49.4,30.05,NNE,22,5.8,5.8,72,0.00,,CLR,0.04,VWS V14.01,2013-05-24 04:44:00,
2013-05-23 23:46:00,58.4,49.4,30.05,NNE,22,5.8,5.8,72,0.00,,CLR,0.04,VWS V14.01,2013-05-24 04:46:00,
2013-05-23 23:47:00,58.4,49.4,30.05,NNE,22,5.8,5.8,72,0.00,,CLR,0.04,VWS V14.01,2013-05-24 04:47:00,
2013-05-23 23:50:00,58.4,49.4,30.05,NNE,22,5.8,5.8,72,0.00,,CLR,0.04,VWS V14.01,2013-05-24 04:50:00,
2013-05-23 23:51:00,58.4,49.4,30.05,NNE,22,5.8,5.8,72,0.00,,CLR,0.04,VWS V14.01,2013-05-24 04:51:00,
2013-05-23 23:53:00,58.4,49.4,30.05,NNE,22,5.8,5.8,72,0.00,,CLR,0.04,VWS V14.01,2013-05-24 04:53:00,
2013-05-23 23:55:00,58.4,49.4,30.05,NNE,22,5.8,5.8,72,0.00,,CLR,0.04,VWS V14.01,2013-05-24 04:55:00,
2013-05-23 23:56:00,58.4,49.4,30.05,NNE,22,5.8,5.8,72,0.00,,CLR,0.04,VWS V14.01,2013-05-24 04:56:00,
2013-05-23 23:58:00,58.4,49.4,30.05,NNE,22,5.8,5.8,72,0.00,,CLR,0.04,VWS V14.01,2013-05-24 04:58:00,
2013-05-23 23:59:00,58.4,49.4,30.05,NNE,22,5.8,5.8,72,0.00,,CLR,0.04,VWS V14.01,2013-05-24 04:59:00,